JAL9 KORD-RJTT

Flight info

Callsign JAL9
Flight time 13h 27m
Altitude 32000
Route PMPKN DCT NEATO DCT DLLAN DCT RONIC DCT BAE J89 DLH Q834 OTLUR Q845 KOBID Q908 TAGOT Q819 YEGGA Q862 YQU/N0489F340 DCT LVD DCT BKA J605 MDO Q10 SQA J501 BET DCT NEONN/N0487F350 R220 NAYLD/N0485F360 R220 NUZAN/N0500F370 R220 NUBDA/N0480F380 R220 NANAC Z22 LOSVA Y810 AKRIT Y807 POLIX
Aircraft B77W/H-SDE1E2E3FGHIJ2J3J4J5M1RWXY/LB1D1

Departure

Time 2026-05-05 07:57
Airport Chicago O'Hare International Airport (KORD)

Arrival

Time 2026-05-05 21:24
Airport Tokyo Haneda International Airport (RJTT)
Time Latitude Longitude Altitude Speed Heading
2026-05-05 07:41 41.97346 -87.88724 681 ft 0 kts
2026-05-05 07:51 41.97332 -87.88724 681 ft 2 kts
2026-05-05 07:51 41.97317 -87.88724 681 ft 2 kts
2026-05-05 07:51 41.97302 -87.88724 681 ft 2 kts 13°
2026-05-05 07:51 41.97288 -87.88732 681 ft 2 kts 34°
2026-05-05 07:52 41.97276 -87.88745 681 ft 2 kts 51°
2026-05-05 07:52 41.97269 -87.88763 681 ft 2 kts 69°
2026-05-05 07:52 41.97265 -87.88782 681 ft 1 kts 87°
2026-05-05 07:52 41.97265 -87.88790 681 ft 0 kts 90°
2026-05-05 07:54 41.97265 -87.88788 681 ft 2 kts 90°
2026-05-05 07:54 41.97265 -87.88723 681 ft 11 kts 99°
2026-05-05 07:55 41.97204 -87.88631 681 ft 13 kts 109°
2026-05-05 07:55 41.97185 -87.88498 681 ft 13 kts 117°
2026-05-05 07:55 41.97118 -87.88442 681 ft 10 kts 184°
2026-05-05 07:55 41.97041 -87.88431 681 ft 13 kts 154°
2026-05-05 07:56 41.96949 -87.88399 681 ft 12 kts 178°
2026-05-05 07:56 41.96907 -87.88470 681 ft 15 kts 263°
2026-05-05 07:56 41.96903 -87.88886 681 ft 78 kts 270°
2026-05-05 07:56 41.96903 -87.89928 681 ft 141 kts 269°
2026-05-05 07:57 41.96898 -87.91517 722 ft 191 kts 272°
2026-05-05 07:57 41.96923 -87.93340 1331 ft 199 kts 275°
2026-05-05 07:57 41.96891 -87.95160 2311 ft 191 kts 271°
2026-05-05 07:57 41.96788 -87.96966 2666 ft 201 kts 279°
2026-05-05 07:58 41.97278 -87.98795 2693 ft 218 kts 313°
2026-05-05 07:58 41.98605 -87.99869 2923 ft 233 kts 351°
2026-05-05 07:58 42.00254 -87.99868 3490 ft 242 kts
2026-05-05 07:58 42.01955 -87.99709 4131 ft 248 kts
2026-05-05 07:59 42.03728 -87.99540 4682 ft 257 kts
2026-05-05 07:59 42.05540 -87.99366 5313 ft 263 kts 360°
2026-05-05 07:59 42.07397 -87.99188 5924 ft 269 kts 359°
2026-05-05 07:59 42.09283 -87.99007 6561 ft 274 kts 358°
2026-05-05 08:00 42.11214 -87.98822 7189 ft 278 kts 357°
2026-05-05 08:00 42.13178 -87.98634 7799 ft 283 kts 357°
2026-05-05 08:00 42.15157 -87.98443 8453 ft 285 kts 356°
2026-05-05 08:00 42.17163 -87.98249 9081 ft 289 kts 356°
2026-05-05 08:01 42.19196 -87.98055 9643 ft 293 kts 355°
2026-05-05 08:01 42.21275 -87.97856 10100 ft 303 kts 355°
2026-05-05 08:01 42.23459 -87.97653 10383 ft 320 kts 356°
2026-05-05 08:01 42.25767 -87.97440 10580 ft 340 kts 356°
2026-05-05 08:02 42.28218 -87.97210 10809 ft 360 kts 356°
2026-05-05 08:02 42.30789 -87.96963 11227 ft 376 kts 356°
2026-05-05 08:02 42.33463 -87.96702 11729 ft 386 kts 356°
2026-05-05 08:02 42.36119 -87.96434 12525 ft 386 kts 356°
2026-05-05 08:03 42.38817 -87.96161 13356 ft 387 kts 355°
2026-05-05 08:03 42.41520 -87.95889 14008 ft 391 kts 355°
2026-05-05 08:03 42.44264 -87.95614 14669 ft 396 kts 355°
2026-05-05 08:03 42.47077 -87.95394 15319 ft 395 kts 351°
2026-05-05 08:04 42.49810 -87.95626 15882 ft 397 kts 346°
2026-05-05 08:04 42.52584 -87.95969 16574 ft 399 kts 346°
2026-05-05 08:04 42.55400 -87.96320 17330 ft 400 kts 346°
2026-05-05 08:04 42.58161 -87.96663 17968 ft 403 kts 346°
2026-05-05 08:05 42.61025 -87.97020 18544 ft 409 kts 345°
2026-05-05 08:05 42.63899 -87.97344 19078 ft 416 kts 347°
2026-05-05 08:05 42.66829 -87.97552 19665 ft 421 kts 348°
2026-05-05 08:05 42.69782 -87.97820 20198 ft 421 kts 343°
2026-05-05 08:06 42.72648 -87.98631 20567 ft 418 kts 333°
2026-05-05 08:06 42.75344 -88.00075 20992 ft 413 kts 324°
2026-05-05 08:06 42.77881 -88.01977 21718 ft 409 kts 321°
2026-05-05 08:06 42.80354 -88.03900 22435 ft 408 kts 321°
2026-05-05 08:07 42.82840 -88.05838 23029 ft 410 kts 321°
2026-05-05 08:07 42.85332 -88.07786 23445 ft 415 kts 321°
2026-05-05 08:07 42.87874 -88.09772 23863 ft 421 kts 321°
2026-05-05 08:07 42.90437 -88.11775 24374 ft 423 kts 321°
2026-05-05 08:08 42.93010 -88.13785 24978 ft 424 kts 321°
2026-05-05 08:08 42.95615 -88.15822 25545 ft 425 kts 321°
2026-05-05 08:08 42.98213 -88.17857 26000 ft 429 kts 321°
2026-05-05 08:08 43.00825 -88.19906 26427 ft 433 kts 321°
2026-05-05 08:09 43.03451 -88.21967 26929 ft 434 kts 321°
2026-05-05 08:09 43.06087 -88.24036 27423 ft 436 kts 321°
2026-05-05 08:09 43.08741 -88.26123 27874 ft 439 kts 321°
2026-05-05 08:09 43.11392 -88.28235 28289 ft 439 kts 318°
2026-05-05 08:10 43.13965 -88.30657 28566 ft 441 kts 315°
2026-05-05 08:10 43.16500 -88.33148 29019 ft 442 kts 315°
2026-05-05 08:10 43.19010 -88.35616 29645 ft 440 kts 315°
2026-05-05 08:10 43.21486 -88.38051 30348 ft 435 kts 315°
2026-05-05 08:11 43.23942 -88.40467 31092 ft 429 kts 315°
2026-05-05 08:11 43.26368 -88.42860 31628 ft 427 kts 315°
2026-05-05 08:11 43.28803 -88.45267 31742 ft 430 kts 315°
2026-05-05 08:11 43.31244 -88.47680 31754 ft 429 kts 315°
2026-05-05 08:12 43.36083 -88.52464 31756 ft 423 kts 315°
2026-05-05 08:12 43.40873 -88.57214 31759 ft 423 kts 314°
2026-05-05 08:13 43.45674 -88.61984 31753 ft 423 kts 315°
2026-05-05 08:13 43.50464 -88.66748 31774 ft 419 kts 314°
2026-05-05 08:14 43.55241 -88.71514 31775 ft 422 kts 314°
2026-05-05 08:14 43.59981 -88.76249 31767 ft 419 kts 314°
2026-05-05 08:15 43.64731 -88.81004 31768 ft 418 kts 314°
2026-05-05 08:15 43.69480 -88.85768 31767 ft 418 kts 314°
2026-05-05 08:16 43.74189 -88.90498 31758 ft 414 kts 313°
2026-05-05 08:16 43.78852 -88.95197 31784 ft 416 kts 314°
2026-05-05 08:17 43.83552 -88.99937 31782 ft 412 kts 314°
2026-05-05 08:17 43.88205 -89.04642 31776 ft 413 kts 313°
2026-05-05 08:18 43.92862 -89.09361 31776 ft 410 kts 314°
2026-05-05 08:18 43.97493 -89.14063 31769 ft 412 kts 314°
2026-05-05 08:19 44.02108 -89.18755 31758 ft 409 kts 314°
2026-05-05 08:19 44.06724 -89.23460 31758 ft 409 kts 313°
2026-05-05 08:20 44.11348 -89.28182 31750 ft 411 kts 313°
2026-05-05 08:20 44.15986 -89.32925 31752 ft 407 kts 313°
2026-05-05 08:21 44.20599 -89.37657 31752 ft 411 kts 313°
2026-05-05 08:21 44.25206 -89.42387 31750 ft 407 kts 313°
2026-05-05 08:22 44.29756 -89.47072 31747 ft 408 kts 313°
2026-05-05 08:22 44.34347 -89.51808 31740 ft 409 kts 313°
2026-05-05 08:23 44.38959 -89.56574 31738 ft 408 kts 313°
2026-05-05 08:23 44.43520 -89.61296 31738 ft 407 kts 313°
2026-05-05 08:24 44.48102 -89.66053 31755 ft 409 kts 312°
2026-05-05 08:24 44.52681 -89.70809 31758 ft 405 kts 311°
2026-05-05 08:25 44.57247 -89.75569 31753 ft 405 kts 312°
2026-05-05 08:25 44.61790 -89.80310 31747 ft 405 kts 311°
2026-05-05 08:26 44.66335 -89.85065 31745 ft 404 kts 311°
2026-05-05 08:26 44.70884 -89.89834 31748 ft 405 kts 311°
2026-05-05 08:27 44.75413 -89.94589 31746 ft 404 kts 311°
2026-05-05 08:27 44.79909 -89.99320 31757 ft 405 kts 311°
2026-05-05 08:28 44.84454 -90.04112 31751 ft 404 kts 311°
2026-05-05 08:28 44.88990 -90.08907 31758 ft 405 kts 311°
2026-05-05 08:29 44.93515 -90.13696 31747 ft 406 kts 311°
2026-05-05 08:30 45.00333 -90.20931 31746 ft 405 kts 311°
2026-05-05 08:30 45.04834 -90.25720 31748 ft 404 kts 311°
2026-05-05 08:31 45.09360 -90.30549 31744 ft 407 kts 312°
2026-05-05 08:31 45.13921 -90.35420 31752 ft 406 kts 311°
2026-05-05 08:32 45.18476 -90.40297 31735 ft 408 kts 312°
2026-05-05 08:32 45.23021 -90.45174 31734 ft 411 kts 312°
2026-05-05 08:33 45.27602 -90.50100 31729 ft 412 kts 313°
2026-05-05 08:33 45.32186 -90.55034 31720 ft 411 kts 313°
2026-05-05 08:34 45.36814 -90.60034 31728 ft 416 kts 313°
2026-05-05 08:34 45.41469 -90.65069 31720 ft 419 kts 312°
2026-05-05 08:35 45.46097 -90.70082 31736 ft 416 kts 313°
2026-05-05 08:35 45.50764 -90.75151 31728 ft 415 kts 313°
2026-05-05 08:36 45.55366 -90.80164 31709 ft 418 kts 313°
2026-05-05 08:36 45.60046 -90.85272 31751 ft 421 kts 314°
2026-05-05 08:37 45.64718 -90.90378 31760 ft 421 kts 313°
2026-05-05 08:37 45.69383 -90.95489 31753 ft 423 kts 313°
2026-05-05 08:38 45.74091 -91.00659 31745 ft 424 kts 314°
2026-05-05 08:38 45.78812 -91.05856 31759 ft 428 kts 314°
2026-05-05 08:39 45.83566 -91.11097 31753 ft 427 kts 314°
2026-05-05 08:39 45.88302 -91.16331 31723 ft 426 kts 315°
2026-05-05 08:40 45.93019 -91.21557 31730 ft 428 kts 315°
2026-05-05 08:40 45.97780 -91.26846 31748 ft 435 kts 315°
2026-05-05 08:41 46.02594 -91.32201 31757 ft 433 kts 315°
2026-05-05 08:41 46.07376 -91.37533 31750 ft 434 kts 315°
2026-05-05 08:42 46.12207 -91.42933 31753 ft 434 kts 315°
2026-05-05 08:42 46.17006 -91.48309 31748 ft 436 kts 316°
2026-05-05 08:43 46.21816 -91.53709 31734 ft 433 kts 316°
2026-05-05 08:43 46.26614 -91.59111 31737 ft 436 kts 316°
2026-05-05 08:44 46.31393 -91.64501 31735 ft 437 kts 316°
2026-05-05 08:44 46.36248 -91.69989 31747 ft 435 kts 315°
2026-05-05 08:45 46.41037 -91.75417 31756 ft 438 kts 315°
2026-05-05 08:45 46.45845 -91.80876 31745 ft 435 kts 316°
2026-05-05 08:46 46.50645 -91.86342 31747 ft 438 kts 316°
2026-05-05 08:46 46.55462 -91.91838 31738 ft 438 kts 316°
2026-05-05 08:47 46.60285 -91.97355 31759 ft 440 kts 316°
2026-05-05 08:47 46.65107 -92.02882 31764 ft 438 kts 316°
2026-05-05 08:48 46.69920 -92.08414 31769 ft 439 kts 316°
2026-05-05 08:48 46.74725 -92.13947 31771 ft 441 kts 316°
2026-05-05 08:49 46.79549 -92.19537 31759 ft 439 kts 314°
2026-05-05 08:49 46.83925 -92.25716 31757 ft 437 kts 311°
2026-05-05 08:50 46.88266 -92.32048 31756 ft 438 kts 311°
2026-05-05 08:50 46.92569 -92.38345 31742 ft 437 kts 311°
2026-05-05 08:51 46.96895 -92.44694 31750 ft 439 kts 311°
2026-05-05 08:51 47.01228 -92.51070 31754 ft 440 kts 311°
2026-05-05 08:52 47.05568 -92.57472 31755 ft 439 kts 311°
2026-05-05 08:52 47.09899 -92.63877 31763 ft 440 kts 311°
2026-05-05 08:53 47.14223 -92.70287 31770 ft 439 kts 311°
2026-05-05 08:53 47.18568 -92.76746 31760 ft 442 kts 311°
2026-05-05 08:54 47.22896 -92.83194 31759 ft 439 kts 311°
2026-05-05 08:54 47.27216 -92.89647 31763 ft 440 kts 311°
2026-05-05 08:55 47.31533 -92.96111 31763 ft 441 kts 311°
2026-05-05 08:55 47.35850 -93.02591 31760 ft 441 kts 311°
2026-05-05 08:56 47.40148 -93.09058 31756 ft 442 kts 312°
2026-05-05 08:56 47.44474 -93.15585 31756 ft 441 kts 312°
2026-05-05 08:57 47.48782 -93.22098 31764 ft 441 kts 312°
2026-05-05 08:57 47.53080 -93.28638 31780 ft 441 kts 312°
2026-05-05 08:58 47.57368 -93.35210 31782 ft 441 kts 312°
2026-05-05 08:58 47.61665 -93.41814 31783 ft 443 kts 312°
2026-05-05 08:59 47.65958 -93.48425 31779 ft 442 kts 312°
2026-05-05 08:59 47.70219 -93.55003 31780 ft 443 kts 312°
2026-05-05 09:00 47.74508 -93.61640 31782 ft 442 kts 312°
2026-05-05 09:00 47.78766 -93.68246 31791 ft 441 kts 311°
2026-05-05 09:01 47.83071 -93.74944 31795 ft 442 kts 311°
2026-05-05 09:01 47.87329 -93.81583 31791 ft 442 kts 312°
2026-05-05 09:02 47.91578 -93.88225 31792 ft 443 kts 312°
2026-05-05 09:02 47.95849 -93.94919 31797 ft 442 kts 312°
2026-05-05 09:03 48.00107 -94.01611 31799 ft 443 kts 312°
2026-05-05 09:03 48.04361 -94.08312 31799 ft 442 kts 312°
2026-05-05 09:04 48.08635 -94.15062 31797 ft 444 kts 312°
2026-05-05 09:04 48.12899 -94.21813 31801 ft 444 kts 312°
2026-05-05 09:05 48.17153 -94.28567 31802 ft 443 kts 312°
2026-05-05 09:05 48.21384 -94.35303 31803 ft 444 kts 312°
2026-05-05 09:06 48.25634 -94.42086 31808 ft 445 kts 312°
2026-05-05 09:06 48.29914 -94.48933 31802 ft 445 kts 312°
2026-05-05 09:07 48.34164 -94.55753 31811 ft 446 kts 313°
2026-05-05 09:07 48.38427 -94.62608 31810 ft 446 kts 313°
2026-05-05 09:08 48.42657 -94.69430 31812 ft 445 kts 312°
2026-05-05 09:08 48.46929 -94.76338 31815 ft 446 kts 312°
2026-05-05 09:09 48.51154 -94.83188 31820 ft 447 kts 312°
2026-05-05 09:09 48.55410 -94.90106 31820 ft 447 kts 312°
2026-05-05 09:10 48.59666 -94.97042 31814 ft 448 kts 312°
2026-05-05 09:10 48.63910 -95.03977 31823 ft 447 kts 312°
2026-05-05 09:11 48.68161 -95.10944 31818 ft 448 kts 312°
2026-05-05 09:11 48.72401 -95.17909 31824 ft 448 kts 312°
2026-05-05 09:12 48.76652 -95.24912 31818 ft 448 kts 312°
2026-05-05 09:12 48.80903 -95.31934 31817 ft 449 kts 312°
2026-05-05 09:13 48.85135 -95.38942 31823 ft 449 kts 313°
2026-05-05 09:13 48.89356 -95.45953 31826 ft 448 kts 313°
2026-05-05 09:14 48.93595 -95.53011 31825 ft 450 kts 313°
2026-05-05 09:14 48.97831 -95.60084 31826 ft 451 kts 313°
2026-05-05 09:15 49.02055 -95.67202 31824 ft 450 kts 311°
2026-05-05 09:15 49.06271 -95.74435 31818 ft 451 kts 311°
2026-05-05 09:16 49.10464 -95.81646 31816 ft 450 kts 311°
2026-05-05 09:16 49.14633 -95.88831 31825 ft 449 kts 311°
2026-05-05 09:17 49.18798 -95.96028 31831 ft 451 kts 311°
2026-05-05 09:17 49.22992 -96.03293 31824 ft 451 kts 311°
2026-05-05 09:18 49.27131 -96.10483 31824 ft 450 kts 311°
2026-05-05 09:18 49.31292 -96.17731 31830 ft 451 kts 311°
2026-05-05 09:19 49.35477 -96.25040 31835 ft 451 kts 311°
2026-05-05 09:19 49.39621 -96.32299 31837 ft 451 kts 312°
2026-05-05 09:20 49.43754 -96.39558 31833 ft 451 kts 312°
2026-05-05 09:20 49.47905 -96.46868 31838 ft 452 kts 311°
2026-05-05 09:21 49.52050 -96.54191 31846 ft 452 kts 312°
2026-05-05 09:21 49.56199 -96.61539 31850 ft 452 kts 312°
2026-05-05 09:22 49.60338 -96.68890 31860 ft 451 kts 311°
2026-05-05 09:22 49.64471 -96.76251 31859 ft 451 kts 311°
2026-05-05 09:23 49.68614 -96.83652 31865 ft 452 kts 311°
2026-05-05 09:23 49.72721 -96.91009 31865 ft 451 kts 311°
2026-05-05 09:24 49.76849 -96.98426 31864 ft 451 kts 311°
2026-05-05 09:24 49.80965 -97.05841 31867 ft 452 kts 311°
2026-05-05 09:25 49.85080 -97.13275 31873 ft 452 kts 311°
2026-05-05 09:25 49.89162 -97.20672 31878 ft 453 kts 311°
2026-05-05 09:26 49.92670 -97.28801 31879 ft 454 kts 301°
2026-05-05 09:26 49.95745 -97.37434 31874 ft 455 kts 300°
2026-05-05 09:27 49.98800 -97.46072 31883 ft 453 kts 300°
2026-05-05 09:27 50.01845 -97.54716 31879 ft 453 kts 301°
2026-05-05 09:28 50.04876 -97.63354 31885 ft 453 kts 300°
2026-05-05 09:28 50.07923 -97.72073 31894 ft 454 kts 300°
2026-05-05 09:29 50.10958 -97.80784 31892 ft 455 kts 300°
2026-05-05 09:29 50.13998 -97.89542 31901 ft 456 kts 300°
2026-05-05 09:30 50.17009 -97.98246 31905 ft 454 kts 300°
2026-05-05 09:30 50.20021 -98.06982 31896 ft 454 kts 300°
2026-05-05 09:31 50.23024 -98.15722 31908 ft 454 kts 300°
2026-05-05 09:31 50.26020 -98.24474 31908 ft 454 kts 300°
2026-05-05 09:32 50.29015 -98.33252 31906 ft 454 kts 300°
2026-05-05 09:32 50.31987 -98.41992 31912 ft 454 kts 300°
2026-05-05 09:33 50.34989 -98.50851 31909 ft 455 kts 300°
2026-05-05 09:33 50.37968 -98.59676 31911 ft 454 kts 300°
2026-05-05 09:34 50.40927 -98.68469 31913 ft 455 kts 299°
2026-05-05 09:34 50.43527 -98.77642 31916 ft 457 kts 293°
2026-05-05 09:35 50.45818 -98.86998 31919 ft 456 kts 293°
2026-05-05 09:35 50.49224 -99.01000 31917 ft 457 kts 293°
2026-05-05 09:36 50.51500 -99.10404 31916 ft 457 kts 293°
2026-05-05 09:36 50.53769 -99.19820 31919 ft 457 kts 293°
2026-05-05 09:37 50.56024 -99.29220 31919 ft 457 kts 293°
2026-05-05 09:37 50.58273 -99.38634 31914 ft 457 kts 293°
2026-05-05 09:38 50.60509 -99.48036 31907 ft 457 kts 293°
2026-05-05 09:38 50.62747 -99.57486 31899 ft 458 kts 293°
2026-05-05 09:39 50.64971 -99.66920 31880 ft 457 kts 292°
2026-05-05 09:39 50.67200 -99.76415 31858 ft 458 kts 292°
2026-05-05 09:40 50.69416 -99.85895 31856 ft 458 kts 292°
2026-05-05 09:40 50.71608 -99.95319 31855 ft 458 kts 292°
2026-05-05 09:41 50.73823 -100.04879 31864 ft 458 kts 292°
2026-05-05 09:41 50.75995 -100.14299 31873 ft 457 kts 292°
2026-05-05 09:42 50.78172 -100.23778 31884 ft 457 kts 292°
2026-05-05 09:42 50.80347 -100.33294 31892 ft 458 kts 292°
2026-05-05 09:43 50.82513 -100.42815 31891 ft 458 kts 292°
2026-05-05 09:43 50.84673 -100.52349 31897 ft 458 kts 292°
2026-05-05 09:44 50.86828 -100.61903 31898 ft 457 kts 292°
2026-05-05 09:44 50.88974 -100.71461 31900 ft 458 kts 292°
2026-05-05 09:45 50.91114 -100.81042 31900 ft 459 kts 292°
2026-05-05 09:45 50.93258 -100.90678 31905 ft 459 kts 292°
2026-05-05 09:46 50.95369 -101.00213 31912 ft 459 kts 292°
2026-05-05 09:46 50.97486 -101.09820 31914 ft 459 kts 292°
2026-05-05 09:47 50.99609 -101.19495 31912 ft 459 kts 292°
2026-05-05 09:47 51.01713 -101.29136 31918 ft 458 kts 292°
2026-05-05 09:48 51.03805 -101.38759 31924 ft 459 kts 292°
2026-05-05 09:48 51.05891 -101.48401 31939 ft 460 kts 292°
2026-05-05 09:49 51.07978 -101.58097 31934 ft 460 kts 292°
2026-05-05 09:49 51.10047 -101.67751 31938 ft 460 kts 292°
2026-05-05 09:50 51.12125 -101.77498 31952 ft 460 kts 292°
2026-05-05 09:50 51.14190 -101.87228 31952 ft 460 kts 292°
2026-05-05 09:51 51.16243 -101.96948 31953 ft 461 kts 292°
2026-05-05 09:51 51.18295 -102.06709 31957 ft 461 kts 292°
2026-05-05 09:52 51.20334 -102.16455 31959 ft 461 kts 292°
2026-05-05 09:52 51.22360 -102.26191 31965 ft 461 kts 292°
2026-05-05 09:53 51.24391 -102.35995 31973 ft 461 kts 292°
2026-05-05 09:53 51.26409 -102.45784 31983 ft 460 kts 292°
2026-05-05 09:54 51.28624 -102.55407 31987 ft 459 kts 295°
2026-05-05 09:54 51.30931 -102.65070 31983 ft 459 kts 294°
2026-05-05 09:55 51.33206 -102.74693 31985 ft 460 kts 294°
2026-05-05 09:55 51.35468 -102.84328 31979 ft 461 kts 294°
2026-05-05 09:56 51.37725 -102.94008 31984 ft 460 kts 294°
2026-05-05 09:56 51.39961 -103.03646 31986 ft 461 kts 294°
2026-05-05 09:57 51.42215 -103.13409 31984 ft 461 kts 294°
2026-05-05 09:57 51.44427 -103.23037 31983 ft 460 kts 294°
2026-05-05 09:58 51.46652 -103.32764 31983 ft 461 kts 294°
2026-05-05 09:58 51.48858 -103.42455 31982 ft 461 kts 294°
2026-05-05 09:59 51.51067 -103.52201 31986 ft 461 kts 294°
2026-05-05 09:59 51.53259 -103.61923 31989 ft 461 kts 294°
2026-05-05 10:00 51.55456 -103.71708 31986 ft 462 kts 294°
2026-05-05 10:00 51.57645 -103.81508 31991 ft 462 kts 293°
2026-05-05 10:01 51.59816 -103.91269 31995 ft 462 kts 294°
2026-05-05 10:01 51.61982 -104.01051 31998 ft 462 kts 294°
2026-05-05 10:02 51.64141 -104.10854 31999 ft 462 kts 294°
2026-05-05 10:02 51.66301 -104.20707 32004 ft 461 kts 294°
2026-05-05 10:03 51.68467 -104.30629 31997 ft 462 kts 294°
2026-05-05 10:03 51.70594 -104.40424 32008 ft 463 kts 294°
2026-05-05 10:04 51.72732 -104.50318 32016 ft 463 kts 294°
2026-05-05 10:04 51.74850 -104.60164 32015 ft 463 kts 294°
2026-05-05 10:05 51.76963 -104.70037 32018 ft 464 kts 293°
2026-05-05 10:05 51.79071 -104.79930 32014 ft 464 kts 293°
2026-05-05 10:06 51.81179 -104.89878 32014 ft 464 kts 293°
2026-05-05 10:06 51.83273 -104.99802 32017 ft 464 kts 293°
2026-05-05 10:07 51.85347 -105.09682 32021 ft 464 kts 293°
2026-05-05 10:07 51.87434 -105.19639 32032 ft 464 kts 293°
2026-05-05 10:08 51.89507 -105.29561 32031 ft 463 kts 293°
2026-05-05 10:08 51.91573 -105.39503 32039 ft 464 kts 293°
2026-05-05 10:09 51.93632 -105.49458 32040 ft 463 kts 293°
2026-05-05 10:09 51.95679 -105.59405 32049 ft 463 kts 293°
2026-05-05 10:10 51.97732 -105.69440 32054 ft 463 kts 292°
2026-05-05 10:10 51.99755 -105.79377 32058 ft 463 kts 292°
2026-05-05 10:11 52.01790 -105.89421 32063 ft 463 kts 292°
2026-05-05 10:11 52.03803 -105.99411 32069 ft 463 kts 292°
2026-05-05 10:12 52.05804 -106.09394 32071 ft 464 kts 292°
2026-05-05 10:12 52.07807 -106.19434 32068 ft 464 kts 292°
2026-05-05 10:13 52.09784 -106.29397 32075 ft 463 kts 292°
2026-05-05 10:13 52.11765 -106.39431 32088 ft 463 kts 292°
2026-05-05 10:14 52.13740 -106.49486 32099 ft 463 kts 292°
2026-05-05 10:14 52.15700 -106.59518 32101 ft 463 kts 292°
2026-05-05 10:15 52.17665 -106.69627 32100 ft 464 kts 291°
2026-05-05 10:15 52.19512 -106.79763 32101 ft 465 kts 290°
2026-05-05 10:16 52.21262 -106.89967 32103 ft 465 kts 290°
2026-05-05 10:16 52.23008 -107.00163 32108 ft 465 kts 290°
2026-05-05 10:17 52.24750 -107.10368 32116 ft 464 kts 290°
2026-05-05 10:17 52.26482 -107.20559 32108 ft 464 kts 290°
2026-05-05 10:18 52.28206 -107.30759 32109 ft 464 kts 290°
2026-05-05 10:18 52.29914 -107.40913 32110 ft 464 kts 290°
2026-05-05 10:19 52.31622 -107.51131 32113 ft 464 kts 290°
2026-05-05 10:19 52.33320 -107.61349 32113 ft 464 kts 290°
2026-05-05 10:20 52.35017 -107.71619 32109 ft 464 kts 290°
2026-05-05 10:20 52.36700 -107.81867 32107 ft 465 kts 290°
2026-05-05 10:21 52.38369 -107.92093 32097 ft 463 kts 290°
2026-05-05 10:21 52.40027 -108.02309 32082 ft 462 kts 290°
2026-05-05 10:22 52.41684 -108.12584 32087 ft 462 kts 290°
2026-05-05 10:22 52.43323 -108.22811 32100 ft 461 kts 290°
2026-05-05 10:23 52.44949 -108.33021 32103 ft 461 kts 290°
2026-05-05 10:23 52.46563 -108.43209 32105 ft 460 kts 290°
2026-05-05 10:24 52.48164 -108.53386 32110 ft 461 kts 290°
2026-05-05 10:24 52.49766 -108.63626 32114 ft 460 kts 291°
2026-05-05 10:25 52.51354 -108.73849 32121 ft 460 kts 290°
2026-05-05 10:25 52.52930 -108.84053 32122 ft 459 kts 290°
2026-05-05 10:26 52.54495 -108.94252 32130 ft 458 kts 290°
2026-05-05 10:26 52.56056 -109.04488 32126 ft 459 kts 290°
2026-05-05 10:27 52.57604 -109.14704 32127 ft 459 kts 290°
2026-05-05 10:27 52.59140 -109.24905 32127 ft 458 kts 291°
2026-05-05 10:28 52.60666 -109.35105 32129 ft 459 kts 291°
2026-05-05 10:28 52.62179 -109.45289 32125 ft 457 kts 291°
2026-05-05 10:29 52.63683 -109.55472 32130 ft 457 kts 291°
2026-05-05 10:29 52.65179 -109.65670 32127 ft 454 kts 290°
2026-05-05 10:30 52.66664 -109.75849 32135 ft 457 kts 291°
2026-05-05 10:30 52.68148 -109.86110 32135 ft 455 kts 291°
2026-05-05 10:31 52.69615 -109.96301 32140 ft 455 kts 291°
2026-05-05 10:31 52.71072 -110.06505 32143 ft 454 kts 291°
2026-05-05 10:32 52.72509 -110.16627 32156 ft 454 kts 291°
2026-05-05 10:32 52.73938 -110.26767 32156 ft 452 kts 292°
2026-05-05 10:33 52.75353 -110.36880 32167 ft 450 kts 292°
2026-05-05 10:33 52.76766 -110.47031 32163 ft 449 kts 292°
2026-05-05 10:34 52.78156 -110.57100 32162 ft 447 kts 293°
2026-05-05 10:34 52.79530 -110.67118 32164 ft 445 kts 292°
2026-05-05 10:35 52.80908 -110.77209 32165 ft 448 kts 292°
2026-05-05 10:35 52.82267 -110.87274 32171 ft 443 kts 293°
2026-05-05 10:36 52.83604 -110.97208 32178 ft 446 kts 293°
2026-05-05 10:36 52.84937 -111.07208 32166 ft 441 kts 294°
2026-05-05 10:37 52.86266 -111.17214 32147 ft 442 kts 294°
2026-05-05 10:37 52.87569 -111.27123 32139 ft 441 kts 294°
2026-05-05 10:38 52.88867 -111.37048 32141 ft 437 kts 294°
2026-05-05 10:38 52.90146 -111.46892 32155 ft 439 kts 295°
2026-05-05 10:39 52.91416 -111.56773 32144 ft 430 kts 295°
2026-05-05 10:39 52.92677 -111.66576 32153 ft 437 kts 294°
2026-05-05 10:40 52.93931 -111.76470 32149 ft 433 kts 295°
2026-05-05 10:40 52.95172 -111.86300 32153 ft 431 kts 295°
2026-05-05 10:41 52.96402 -111.96090 32163 ft 434 kts 295°
2026-05-05 10:41 52.97611 -112.05849 32164 ft 427 kts 296°
2026-05-05 10:42 52.99418 -112.20492 32157 ft 423 kts 295°
2026-05-05 10:43 53.00596 -112.30100 32162 ft 428 kts 295°
2026-05-05 10:43 53.01783 -112.39866 32156 ft 429 kts 296°
2026-05-05 10:44 53.02959 -112.49649 32166 ft 426 kts 295°
2026-05-05 10:44 53.04108 -112.59273 32154 ft 424 kts 296°
2026-05-05 10:45 53.05269 -112.69001 32155 ft 433 kts 295°
2026-05-05 10:45 53.06422 -112.78831 32145 ft 426 kts 295°
2026-05-05 10:46 53.07565 -112.88590 32159 ft 429 kts 295°
2026-05-05 10:46 53.08702 -112.98386 32160 ft 430 kts 295°
2026-05-05 10:47 53.09830 -113.08176 32154 ft 432 kts 295°
2026-05-05 10:47 53.10953 -113.18018 32195 ft 430 kts 295°
2026-05-05 10:48 53.12064 -113.27808 32207 ft 432 kts 295°
2026-05-05 10:48 53.13170 -113.37661 32213 ft 425 kts 295°
2026-05-05 10:49 53.14257 -113.47380 32209 ft 429 kts 295°
2026-05-05 10:49 53.15349 -113.57227 32209 ft 431 kts 294°
2026-05-05 10:50 53.16421 -113.67014 32202 ft 427 kts 294°
2026-05-05 10:50 53.17505 -113.76916 32211 ft 434 kts 294°
2026-05-05 10:51 53.18568 -113.86789 32212 ft 427 kts 294°
2026-05-05 10:51 53.19650 -113.96574 32218 ft 432 kts 294°
2026-05-05 10:52 53.20738 -114.06470 32217 ft 430 kts 294°
2026-05-05 10:52 53.21812 -114.16322 32214 ft 428 kts 293°
2026-05-05 10:53 53.22878 -114.26157 32213 ft 432 kts 294°
2026-05-05 10:53 53.23933 -114.36022 32206 ft 428 kts 294°
2026-05-05 10:54 53.24985 -114.45893 32203 ft 431 kts 293°
2026-05-05 10:54 53.26028 -114.55787 32196 ft 430 kts 294°
2026-05-05 10:55 53.27260 -114.65473 32194 ft 416 kts 301°
2026-05-05 10:55 53.29846 -114.73874 32195 ft 393 kts 315°
2026-05-05 10:56 53.33248 -114.81047 32198 ft 391 kts 317°
2026-05-05 10:56 53.36675 -114.88217 32196 ft 394 kts 317°
2026-05-05 10:57 53.40080 -114.95403 32197 ft 395 kts 317°
2026-05-05 10:57 53.43483 -115.02618 32192 ft 393 kts 317°
2026-05-05 10:58 53.46887 -115.09860 32192 ft 392 kts 316°
2026-05-05 10:58 53.50290 -115.17125 32190 ft 393 kts 316°
2026-05-05 10:59 53.53679 -115.24385 32185 ft 393 kts 316°
2026-05-05 10:59 53.57087 -115.31702 32181 ft 397 kts 316°
2026-05-05 11:00 53.60494 -115.39043 32177 ft 398 kts 316°
2026-05-05 11:00 53.63886 -115.46375 32171 ft 396 kts 316°
2026-05-05 11:01 53.67303 -115.53777 32167 ft 398 kts 316°
2026-05-05 11:01 53.70696 -115.61156 32167 ft 395 kts 316°
2026-05-05 11:02 53.74089 -115.68549 32173 ft 398 kts 315°
2026-05-05 11:02 53.77496 -115.75999 32175 ft 400 kts 315°
2026-05-05 11:03 53.80905 -115.83475 32172 ft 401 kts 315°
2026-05-05 11:03 53.84318 -115.90986 32169 ft 398 kts 315°
2026-05-05 11:04 53.87727 -115.98502 32161 ft 402 kts 315°
2026-05-05 11:04 53.91121 -116.06017 32151 ft 399 kts 315°
2026-05-05 11:05 53.94522 -116.13563 32142 ft 402 kts 315°
2026-05-05 11:05 53.97909 -116.21105 32133 ft 400 kts 315°
2026-05-05 11:06 54.01305 -116.28687 32127 ft 402 kts 315°
2026-05-05 11:06 54.04721 -116.36339 32123 ft 403 kts 315°
2026-05-05 11:07 54.08126 -116.43991 32124 ft 402 kts 315°
2026-05-05 11:07 54.11522 -116.51645 32151 ft 401 kts 314°
2026-05-05 11:08 54.14913 -116.59309 32155 ft 403 kts 314°
2026-05-05 11:08 54.18294 -116.66976 32155 ft 403 kts 314°
2026-05-05 11:09 54.21728 -116.74784 32155 ft 406 kts 314°
2026-05-05 11:09 54.25104 -116.82489 32155 ft 405 kts 313°
2026-05-05 11:10 54.28522 -116.90313 32159 ft 407 kts 313°
2026-05-05 11:10 54.31925 -116.98126 32157 ft 406 kts 313°
2026-05-05 11:11 54.35309 -117.05919 32158 ft 407 kts 313°
2026-05-05 11:11 54.38688 -117.13725 32156 ft 407 kts 313°
2026-05-05 11:12 54.42075 -117.21577 32157 ft 407 kts 313°
2026-05-05 11:12 54.45462 -117.29452 32155 ft 407 kts 313°
2026-05-05 11:13 54.48847 -117.37345 32159 ft 409 kts 313°
2026-05-05 11:13 54.52228 -117.45258 32159 ft 408 kts 313°
2026-05-05 11:14 54.55604 -117.53181 32158 ft 409 kts 312°
2026-05-05 11:14 54.58976 -117.61122 32157 ft 409 kts 312°
2026-05-05 11:15 54.62355 -117.69106 32161 ft 409 kts 311°
2026-05-05 11:15 54.65729 -117.77100 32159 ft 411 kts 311°
2026-05-05 11:16 54.69096 -117.85107 32160 ft 410 kts 311°
2026-05-05 11:16 54.72471 -117.93156 32160 ft 411 kts 311°
2026-05-05 11:17 54.75843 -118.01226 32165 ft 412 kts 311°
2026-05-05 11:17 54.79199 -118.09285 32166 ft 410 kts 311°
2026-05-05 11:18 54.82556 -118.17369 32164 ft 412 kts 311°
2026-05-05 11:18 54.85913 -118.25481 32160 ft 413 kts 311°
2026-05-05 11:19 54.89259 -118.33594 32157 ft 411 kts 311°
2026-05-05 11:19 54.92606 -118.41736 32155 ft 412 kts 311°
2026-05-05 11:20 54.95952 -118.49902 32156 ft 412 kts 311°
2026-05-05 11:20 54.99292 -118.58080 32153 ft 412 kts 311°
2026-05-05 11:21 55.02609 -118.66228 32156 ft 413 kts 310°
2026-05-05 11:21 55.05947 -118.74459 32158 ft 414 kts 310°
2026-05-05 11:22 55.09279 -118.82698 32152 ft 413 kts 310°
2026-05-05 11:22 55.12627 -118.91005 32170 ft 414 kts 309°
2026-05-05 11:23 55.15931 -118.99296 32161 ft 417 kts 307°
2026-05-05 11:23 55.18185 -119.08775 32170 ft 428 kts 293°
2026-05-05 11:24 55.19799 -119.18862 32162 ft 430 kts 292°
2026-05-05 11:24 55.21372 -119.29007 32157 ft 429 kts 292°
2026-05-05 11:25 55.22928 -119.39198 32155 ft 431 kts 291°
2026-05-05 11:25 55.24453 -119.49320 32153 ft 429 kts 291°
2026-05-05 11:26 55.25978 -119.59519 32144 ft 430 kts 291°
2026-05-05 11:26 55.27495 -119.69745 32144 ft 432 kts 290°
2026-05-05 11:27 55.28998 -119.79951 32143 ft 432 kts 290°
2026-05-05 11:27 55.30505 -119.90253 32140 ft 433 kts 290°
2026-05-05 11:28 55.31998 -120.00529 32132 ft 435 kts 290°
2026-05-05 11:28 55.33485 -120.10832 32129 ft 432 kts 290°
2026-05-05 11:29 55.34958 -120.21105 32128 ft 434 kts 290°
2026-05-05 11:29 55.36436 -120.31479 32125 ft 433 kts 290°
2026-05-05 11:30 55.37885 -120.41724 32122 ft 432 kts 290°
2026-05-05 11:30 55.39343 -120.52091 32119 ft 432 kts 290°
2026-05-05 11:31 55.40782 -120.62401 32118 ft 433 kts 290°
2026-05-05 11:31 55.42211 -120.72702 32118 ft 434 kts 289°
2026-05-05 11:32 55.43645 -120.83122 32118 ft 433 kts 289°
2026-05-05 11:32 55.45063 -120.93488 32119 ft 434 kts 289°
2026-05-05 11:33 55.46467 -121.03829 32117 ft 432 kts 289°
2026-05-05 11:33 55.47870 -121.14222 32117 ft 435 kts 288°
2026-05-05 11:34 55.49262 -121.24618 32116 ft 436 kts 288°
2026-05-05 11:34 55.50641 -121.34990 32115 ft 433 kts 288°
2026-05-05 11:35 55.52020 -121.45425 32117 ft 435 kts 288°
2026-05-05 11:35 55.53384 -121.55833 32122 ft 434 kts 288°
2026-05-05 11:36 55.54748 -121.66303 32113 ft 436 kts 287°
2026-05-05 11:36 55.56102 -121.76782 32116 ft 436 kts 287°
2026-05-05 11:37 55.57452 -121.87306 32113 ft 436 kts 287°
2026-05-05 11:37 55.58788 -121.97797 32118 ft 435 kts 287°
2026-05-05 11:38 55.60119 -122.08321 32120 ft 438 kts 287°
2026-05-05 11:38 55.61441 -122.18861 32116 ft 438 kts 287°
2026-05-05 11:39 55.62750 -122.29372 32109 ft 438 kts 287°
2026-05-05 11:39 55.64057 -122.39954 32105 ft 437 kts 287°
2026-05-05 11:40 55.65347 -122.50472 32101 ft 436 kts 287°
2026-05-05 11:40 55.66638 -122.61070 32095 ft 438 kts 287°
2026-05-05 11:41 55.67918 -122.71669 32100 ft 440 kts 285°
2026-05-05 11:41 55.69192 -122.82307 32096 ft 438 kts 285°
2026-05-05 11:42 55.70459 -122.92958 32102 ft 439 kts 285°
2026-05-05 11:42 55.71710 -123.03568 32101 ft 439 kts 285°
2026-05-05 11:43 55.72952 -123.14184 32099 ft 437 kts 285°
2026-05-05 11:43 55.74183 -123.24787 32100 ft 438 kts 285°
2026-05-05 11:44 55.75409 -123.35435 32093 ft 437 kts 285°
2026-05-05 11:44 55.76621 -123.46052 32091 ft 438 kts 285°
2026-05-05 11:45 55.77826 -123.56686 32084 ft 438 kts 285°
2026-05-05 11:45 55.79016 -123.67278 32078 ft 439 kts 284°
2026-05-05 11:46 55.80209 -123.77988 32085 ft 438 kts 284°
2026-05-05 11:46 55.81388 -123.88663 32070 ft 437 kts 284°
2026-05-05 11:47 55.82559 -123.99350 32066 ft 439 kts 284°
2026-05-05 11:47 55.83712 -124.09964 32064 ft 437 kts 284°
2026-05-05 11:48 55.85431 -124.25966 32066 ft 437 kts 284°
2026-05-05 11:48 55.86565 -124.36629 32068 ft 437 kts 283°
2026-05-05 11:49 55.87689 -124.47300 32073 ft 437 kts 283°
2026-05-05 11:49 55.88802 -124.57951 32074 ft 438 kts 283°
2026-05-05 11:50 55.89912 -124.68684 32084 ft 438 kts 282°
2026-05-05 11:50 55.91018 -124.79462 32080 ft 438 kts 282°
2026-05-05 11:51 55.92106 -124.90164 32093 ft 439 kts 282°
2026-05-05 11:51 55.93190 -125.00925 32107 ft 439 kts 282°
2026-05-05 11:52 55.94263 -125.11671 32099 ft 439 kts 282°
2026-05-05 11:52 55.95325 -125.22421 32086 ft 438 kts 282°
2026-05-05 11:53 55.96379 -125.33176 32082 ft 438 kts 282°
2026-05-05 11:53 55.97423 -125.43937 32078 ft 438 kts 282°
2026-05-05 11:54 55.98461 -125.54733 32079 ft 439 kts 282°
2026-05-05 11:54 55.99494 -125.65586 32089 ft 440 kts 281°
2026-05-05 11:55 56.00516 -125.76435 32100 ft 440 kts 281°
2026-05-05 11:55 56.01526 -125.87253 32086 ft 440 kts 281°
2026-05-05 11:56 56.02531 -125.98126 32074 ft 441 kts 281°
2026-05-05 11:56 56.03527 -126.09023 32073 ft 441 kts 281°
2026-05-05 11:57 56.04512 -126.19899 32084 ft 440 kts 280°
2026-05-05 11:57 56.05485 -126.30750 32089 ft 439 kts 280°
2026-05-05 11:58 56.06446 -126.41595 32075 ft 441 kts 280°
2026-05-05 11:58 56.07402 -126.52481 32064 ft 442 kts 280°
2026-05-05 11:59 56.08350 -126.63389 32064 ft 441 kts 280°
2026-05-05 11:59 56.09288 -126.74306 32072 ft 442 kts 279°
2026-05-05 12:00 56.10216 -126.85226 32073 ft 442 kts 279°
2026-05-05 12:00 56.11144 -126.96266 32068 ft 442 kts 279°
2026-05-05 12:01 56.12054 -127.07216 32064 ft 442 kts 279°
2026-05-05 12:01 56.12954 -127.18147 32071 ft 443 kts 279°
2026-05-05 12:02 56.13848 -127.29147 32069 ft 442 kts 279°
2026-05-05 12:02 56.14729 -127.40112 32051 ft 441 kts 278°
2026-05-05 12:03 56.15596 -127.51027 32040 ft 441 kts 278°
2026-05-05 12:03 56.16455 -127.61958 32039 ft 441 kts 278°
2026-05-05 12:04 56.17309 -127.72964 32043 ft 441 kts 277°
2026-05-05 12:04 56.18148 -127.83901 32037 ft 442 kts 277°
2026-05-05 12:05 56.18979 -127.94856 32026 ft 440 kts 277°
2026-05-05 12:05 56.19799 -128.05818 32018 ft 441 kts 277°
2026-05-05 12:06 56.20614 -128.16834 32028 ft 441 kts 277°
2026-05-05 12:06 56.21414 -128.27789 32044 ft 441 kts 277°
2026-05-05 12:07 56.22204 -128.38748 32033 ft 442 kts 277°
2026-05-05 12:07 56.22987 -128.49751 32026 ft 443 kts 277°
2026-05-05 12:08 56.23765 -128.60812 32007 ft 443 kts 276°
2026-05-05 12:08 56.24531 -128.71851 32014 ft 443 kts 276°
2026-05-05 12:09 56.25289 -128.82932 32007 ft 442 kts 275°
2026-05-05 12:09 56.26035 -128.93976 32012 ft 442 kts 276°
2026-05-05 12:10 56.26769 -129.04990 32026 ft 442 kts 275°
2026-05-05 12:10 56.27492 -129.16000 32024 ft 441 kts 275°
2026-05-05 12:11 56.28205 -129.27006 32015 ft 441 kts 275°
2026-05-05 12:11 56.28905 -129.37967 32009 ft 442 kts 275°
2026-05-05 12:12 56.29599 -129.48984 31997 ft 442 kts 275°
2026-05-05 12:12 56.30286 -129.60060 31995 ft 444 kts 275°
2026-05-05 12:13 56.30967 -129.71201 31997 ft 443 kts 274°
2026-05-05 12:13 56.31636 -129.82295 32001 ft 442 kts 274°
2026-05-05 12:14 56.32291 -129.93355 32032 ft 442 kts 274°
2026-05-05 12:14 56.32939 -130.04436 32067 ft 443 kts 274°
2026-05-05 12:15 56.33574 -130.15492 32036 ft 442 kts 274°
2026-05-05 12:15 56.34201 -130.26575 32011 ft 442 kts 274°
2026-05-05 12:16 56.34816 -130.37605 31993 ft 441 kts 274°
2026-05-05 12:16 56.35422 -130.48685 31984 ft 443 kts 273°
2026-05-05 12:17 56.36018 -130.59737 31982 ft 442 kts 273°
2026-05-05 12:17 56.36610 -130.70938 31989 ft 442 kts 272°
2026-05-05 12:18 56.37185 -130.81981 31992 ft 441 kts 272°
2026-05-05 12:18 56.37751 -130.93043 32003 ft 441 kts 272°
2026-05-05 12:19 56.38305 -131.04089 32012 ft 442 kts 272°
2026-05-05 12:19 56.38852 -131.15178 31982 ft 441 kts 272°
2026-05-05 12:20 56.39387 -131.26216 31956 ft 440 kts 272°
2026-05-05 12:20 56.39915 -131.37337 31952 ft 440 kts 272°
2026-05-05 12:21 56.40431 -131.48396 31961 ft 440 kts 271°
2026-05-05 12:21 56.40935 -131.59444 31952 ft 439 kts 271°
2026-05-05 12:22 56.41430 -131.70497 31946 ft 440 kts 270°
2026-05-05 12:22 56.41916 -131.81557 31939 ft 439 kts 270°
2026-05-05 12:23 56.42391 -131.92606 31950 ft 440 kts 270°
2026-05-05 12:23 56.42855 -132.03618 31965 ft 440 kts 270°
2026-05-05 12:24 56.43310 -132.14671 31949 ft 438 kts 270°
2026-05-05 12:24 56.43756 -132.25734 31930 ft 439 kts 270°
2026-05-05 12:25 56.44190 -132.36740 31928 ft 438 kts 270°
2026-05-05 12:25 56.44614 -132.47748 31930 ft 438 kts 270°
2026-05-05 12:26 56.45029 -132.58803 31933 ft 438 kts 270°
2026-05-05 12:26 56.45437 -132.69870 31934 ft 437 kts 269°
2026-05-05 12:27 56.45829 -132.80820 31933 ft 437 kts 269°
2026-05-05 12:27 56.46212 -132.91801 31942 ft 436 kts 269°
2026-05-05 12:28 56.46587 -133.02794 31938 ft 435 kts 268°
2026-05-05 12:28 56.47113 -133.13780 31932 ft 441 kts 276°
2026-05-05 12:29 56.49028 -133.24518 31929 ft 450 kts 283°
2026-05-05 12:29 56.51080 -133.35292 31929 ft 449 kts 282°
2026-05-05 12:30 56.53003 -133.46057 31927 ft 449 kts 281°
2026-05-05 12:30 56.54860 -133.56851 31922 ft 448 kts 281°
2026-05-05 12:31 56.56683 -133.67690 31924 ft 448 kts 280°
2026-05-05 12:31 56.58481 -133.78545 31936 ft 446 kts 279°
2026-05-05 12:32 56.60263 -133.89412 31931 ft 446 kts 279°
2026-05-05 12:32 56.62025 -134.00258 31929 ft 448 kts 279°
2026-05-05 12:33 56.63778 -134.11122 31932 ft 446 kts 279°
2026-05-05 12:33 56.65529 -134.22060 31932 ft 448 kts 279°
2026-05-05 12:34 56.67264 -134.32967 31937 ft 448 kts 279°
2026-05-05 12:34 56.68987 -134.43867 31941 ft 448 kts 279°
2026-05-05 12:35 56.70704 -134.54799 31931 ft 447 kts 279°
2026-05-05 12:35 56.72424 -134.65826 31935 ft 448 kts 278°
2026-05-05 12:36 56.74120 -134.76764 31941 ft 447 kts 278°
2026-05-05 12:36 56.75806 -134.87715 31935 ft 447 kts 278°
2026-05-05 12:37 56.77478 -134.98648 31928 ft 446 kts 278°
2026-05-05 12:37 56.79149 -135.09648 31939 ft 447 kts 278°
2026-05-05 12:38 56.80810 -135.20659 31947 ft 447 kts 278°
2026-05-05 12:38 56.82449 -135.31592 31967 ft 448 kts 277°
2026-05-05 12:39 56.84087 -135.42589 31970 ft 447 kts 277°
2026-05-05 12:39 56.85760 -135.53633 31967 ft 451 kts 281°
2026-05-05 12:40 56.88583 -135.64227 31970 ft 465 kts 291°
2026-05-05 12:40 56.91718 -135.74632 31981 ft 463 kts 290°
2026-05-05 12:41 56.94842 -135.85097 31977 ft 463 kts 290°
2026-05-05 12:41 56.97913 -135.95467 31973 ft 464 kts 289°
2026-05-05 12:42 57.01001 -136.05953 31980 ft 463 kts 289°
2026-05-05 12:42 57.04050 -136.16360 31972 ft 463 kts 289°
2026-05-05 12:43 57.07117 -136.26888 31971 ft 463 kts 289°
2026-05-05 12:43 57.10173 -136.37424 31975 ft 464 kts 289°
2026-05-05 12:44 57.13208 -136.47932 31951 ft 463 kts 289°
2026-05-05 12:44 57.16245 -136.58507 31958 ft 466 kts 289°
2026-05-05 12:45 57.19271 -136.69083 31957 ft 463 kts 288°
2026-05-05 12:45 57.22297 -136.79712 31972 ft 465 kts 288°
2026-05-05 12:46 57.25307 -136.90335 31971 ft 466 kts 288°
2026-05-05 12:46 57.28308 -137.00970 31967 ft 465 kts 288°
2026-05-05 12:47 57.31301 -137.11630 31965 ft 468 kts 288°
2026-05-05 12:47 57.34299 -137.22356 31973 ft 466 kts 288°
2026-05-05 12:48 57.37299 -137.33138 31961 ft 466 kts 288°
2026-05-05 12:48 57.40268 -137.43861 31962 ft 467 kts 288°
2026-05-05 12:49 57.43232 -137.54614 31956 ft 466 kts 287°
2026-05-05 12:49 57.46202 -137.65443 31954 ft 467 kts 287°
2026-05-05 12:50 57.49139 -137.76201 31965 ft 464 kts 286°
2026-05-05 12:50 57.52078 -137.87019 31964 ft 466 kts 286°
2026-05-05 12:51 57.55004 -137.97839 31956 ft 464 kts 286°
2026-05-05 12:51 57.57933 -138.08734 31959 ft 469 kts 286°
2026-05-05 12:52 57.60860 -138.19659 31959 ft 470 kts 286°
2026-05-05 12:52 57.63766 -138.30554 31954 ft 466 kts 286°
2026-05-05 12:53 57.66685 -138.41568 31952 ft 468 kts 286°
2026-05-05 12:53 57.69570 -138.52495 31952 ft 469 kts 286°
2026-05-05 12:54 57.73893 -138.68967 31956 ft 466 kts 285°
2026-05-05 12:55 57.76761 -138.79965 31960 ft 466 kts 285°
2026-05-05 12:55 57.79616 -138.90976 31957 ft 467 kts 285°
2026-05-05 12:56 57.82471 -139.02034 31961 ft 468 kts 285°
2026-05-05 12:56 57.85336 -139.13188 31961 ft 469 kts 285°
2026-05-05 12:57 57.88169 -139.24271 31954 ft 472 kts 285°
2026-05-05 12:57 57.91000 -139.35393 31944 ft 468 kts 285°
2026-05-05 12:58 57.93817 -139.46530 31939 ft 471 kts 285°
2026-05-05 12:58 57.96619 -139.57654 31940 ft 468 kts 285°
2026-05-05 12:59 57.99440 -139.68918 31933 ft 468 kts 285°
2026-05-05 12:59 58.02219 -139.80063 31932 ft 469 kts 285°
2026-05-05 13:00 58.06369 -139.96815 31938 ft 468 kts 285°
2026-05-05 13:01 58.11903 -140.19360 31915 ft 469 kts 285°
2026-05-05 13:01 58.14679 -140.30766 31911 ft 473 kts 285°
2026-05-05 13:02 58.17417 -140.42059 31905 ft 471 kts 285°
2026-05-05 13:02 58.20151 -140.53400 31904 ft 473 kts 285°
2026-05-05 13:03 58.22898 -140.64854 31904 ft 474 kts 285°
2026-05-05 13:03 58.25623 -140.76274 31903 ft 470 kts 284°
2026-05-05 13:04 58.28346 -140.87753 31904 ft 473 kts 284°
2026-05-05 13:04 58.31052 -140.99216 31901 ft 472 kts 284°
2026-05-05 13:05 58.33754 -141.10730 31897 ft 475 kts 284°
2026-05-05 13:05 58.36445 -141.22249 31892 ft 473 kts 284°
2026-05-05 13:06 58.39119 -141.33766 31890 ft 474 kts 284°
2026-05-05 13:06 58.41783 -141.45297 31886 ft 474 kts 284°
2026-05-05 13:07 58.44461 -141.56958 31877 ft 477 kts 284°
2026-05-05 13:07 58.47127 -141.68617 31880 ft 474 kts 283°
2026-05-05 13:08 58.49764 -141.80219 31877 ft 473 kts 283°
2026-05-05 13:08 58.52406 -141.91914 31882 ft 476 kts 283°
2026-05-05 13:09 58.55029 -142.03578 31881 ft 474 kts 283°
2026-05-05 13:09 58.57643 -142.15282 31878 ft 477 kts 283°
2026-05-05 13:10 58.60262 -142.27058 31877 ft 476 kts 283°
2026-05-05 13:10 58.62858 -142.38806 31873 ft 476 kts 283°
2026-05-05 13:11 58.65447 -142.50589 31866 ft 478 kts 283°
2026-05-05 13:11 58.68028 -142.62395 31863 ft 478 kts 283°
2026-05-05 13:12 58.70598 -142.74213 31860 ft 475 kts 283°
2026-05-05 13:12 58.73140 -142.85985 31859 ft 476 kts 283°
2026-05-05 13:13 58.75693 -142.97868 31851 ft 476 kts 283°
2026-05-05 13:13 58.78231 -143.09753 31845 ft 479 kts 283°
2026-05-05 13:14 58.80755 -143.21632 31845 ft 478 kts 283°
2026-05-05 13:14 58.83289 -143.33633 31838 ft 478 kts 283°
2026-05-05 13:15 58.85791 -143.45549 31841 ft 477 kts 283°
2026-05-05 13:15 58.88292 -143.57535 31840 ft 478 kts 283°
2026-05-05 13:16 58.90784 -143.69545 31840 ft 478 kts 282°
2026-05-05 13:16 58.93250 -143.81503 31839 ft 478 kts 282°
2026-05-05 13:17 58.95721 -143.93550 31832 ft 476 kts 282°
2026-05-05 13:17 58.98164 -144.05541 31827 ft 478 kts 282°
2026-05-05 13:18 59.00614 -144.17633 31825 ft 477 kts 282°
2026-05-05 13:18 59.03042 -144.29697 31796 ft 479 kts 282°
2026-05-05 13:19 59.05457 -144.41756 31819 ft 479 kts 282°
2026-05-05 13:19 59.07880 -144.53940 31808 ft 480 kts 282°
2026-05-05 13:20 59.10274 -144.66040 31802 ft 479 kts 281°
2026-05-05 13:20 59.12691 -144.78345 31769 ft 480 kts 281°
2026-05-05 13:21 59.15064 -144.90489 31780 ft 479 kts 281°
2026-05-05 13:21 59.17448 -145.02777 31771 ft 481 kts 281°
2026-05-05 13:22 59.19794 -145.14937 31783 ft 481 kts 281°
2026-05-05 13:22 59.22162 -145.27286 31777 ft 481 kts 282°
2026-05-05 13:23 59.24506 -145.39594 31766 ft 481 kts 282°
2026-05-05 13:23 59.26834 -145.51894 31765 ft 483 kts 282°
2026-05-05 13:24 59.29180 -145.64371 31768 ft 483 kts 282°
2026-05-05 13:24 59.31496 -145.76758 31768 ft 482 kts 281°
2026-05-05 13:25 59.33787 -145.89099 31765 ft 483 kts 281°
2026-05-05 13:25 59.36091 -146.01592 31769 ft 482 kts 282°
2026-05-05 13:26 59.38360 -146.13968 31762 ft 481 kts 282°
2026-05-05 13:26 59.40623 -146.26404 31744 ft 483 kts 282°
2026-05-05 13:27 59.42928 -146.38881 31756 ft 487 kts 286°
2026-05-05 13:27 59.46201 -146.50859 31756 ft 495 kts 292°
2026-05-05 13:28 59.49560 -146.62717 31746 ft 495 kts 292°
2026-05-05 13:28 59.52866 -146.74667 31745 ft 492 kts 291°
2026-05-05 13:29 59.56115 -146.86609 31736 ft 494 kts 291°
2026-05-05 13:29 59.59355 -146.98653 31737 ft 494 kts 291°
2026-05-05 13:30 59.62568 -147.10698 31739 ft 494 kts 291°
2026-05-05 13:30 59.65762 -147.22757 31734 ft 493 kts 291°
2026-05-05 13:31 59.68956 -147.34894 31734 ft 493 kts 291°
2026-05-05 13:31 59.72111 -147.46953 31737 ft 493 kts 292°
2026-05-05 13:32 59.75276 -147.59117 31736 ft 493 kts 292°
2026-05-05 13:32 59.78411 -147.71234 31741 ft 490 kts 291°
2026-05-05 13:33 59.81533 -147.83369 31739 ft 491 kts 291°
2026-05-05 13:33 59.84659 -147.95587 31728 ft 492 kts 292°
2026-05-05 13:34 59.87768 -148.07806 31743 ft 491 kts 292°
2026-05-05 13:34 59.90849 -148.19981 31747 ft 491 kts 292°
2026-05-05 13:35 59.93920 -148.32184 31756 ft 492 kts 292°
2026-05-05 13:35 59.96992 -148.44461 31755 ft 492 kts 292°
2026-05-05 13:36 60.00044 -148.56723 31751 ft 491 kts 292°
2026-05-05 13:36 60.03073 -148.68961 31723 ft 489 kts 292°
2026-05-05 13:37 60.06111 -148.81306 31687 ft 490 kts 292°
2026-05-05 13:37 60.09108 -148.93550 31675 ft 489 kts 292°
2026-05-05 13:38 60.12121 -149.05931 31664 ft 490 kts 292°
2026-05-05 13:38 60.15123 -149.18337 31668 ft 491 kts 292°
2026-05-05 13:39 60.18095 -149.30690 31671 ft 489 kts 292°
2026-05-05 13:39 60.21060 -149.43083 31664 ft 490 kts 292°
2026-05-05 13:40 60.24009 -149.55479 31645 ft 487 kts 293°
2026-05-05 13:40 60.26938 -149.67864 31659 ft 488 kts 292°
2026-05-05 13:41 60.29854 -149.80263 31671 ft 487 kts 292°
2026-05-05 13:41 60.32767 -149.92720 31666 ft 488 kts 292°
2026-05-05 13:42 60.35662 -150.05174 31651 ft 487 kts 292°
2026-05-05 13:42 60.38530 -150.17583 31657 ft 487 kts 292°
2026-05-05 13:43 60.41401 -150.30074 31673 ft 487 kts 292°
2026-05-05 13:43 60.44257 -150.42578 31674 ft 486 kts 293°
2026-05-05 13:44 60.47099 -150.55092 31678 ft 486 kts 292°
2026-05-05 13:44 60.49924 -150.67603 31685 ft 486 kts 292°
2026-05-05 13:45 60.52739 -150.80145 31676 ft 485 kts 292°
2026-05-05 13:45 60.55566 -150.92816 31677 ft 485 kts 292°
2026-05-05 13:46 60.58342 -151.05330 31680 ft 484 kts 292°
2026-05-05 13:46 60.61042 -151.17975 31676 ft 483 kts 287°
2026-05-05 13:47 60.62872 -151.31171 31683 ft 482 kts 283°
2026-05-05 13:47 60.64576 -151.44428 31684 ft 481 kts 283°
2026-05-05 13:48 60.66242 -151.57636 31689 ft 481 kts 283°
2026-05-05 13:48 60.67904 -151.71014 31694 ft 481 kts 282°
2026-05-05 13:49 60.69532 -151.84259 31690 ft 480 kts 282°
2026-05-05 13:49 60.71154 -151.97607 31695 ft 480 kts 282°
2026-05-05 13:50 60.72753 -152.10893 31694 ft 480 kts 282°
2026-05-05 13:50 60.74347 -152.24268 31699 ft 480 kts 282°
2026-05-05 13:51 60.75912 -152.37527 31683 ft 479 kts 283°
2026-05-05 13:51 60.77472 -152.50874 31651 ft 478 kts 283°
2026-05-05 13:52 60.79012 -152.64171 31617 ft 476 kts 283°
2026-05-05 13:52 60.80538 -152.77467 31586 ft 476 kts 282°
2026-05-05 13:53 60.82045 -152.90738 31594 ft 476 kts 282°
2026-05-05 13:53 60.83537 -153.03993 31617 ft 477 kts 282°
2026-05-05 13:54 60.85016 -153.17265 31631 ft 476 kts 282°
2026-05-05 13:54 60.86480 -153.30541 31656 ft 475 kts 282°
2026-05-05 13:55 60.87932 -153.43823 31630 ft 474 kts 282°
2026-05-05 13:55 60.89367 -153.57091 31600 ft 473 kts 282°
2026-05-05 13:56 60.90799 -153.70465 31593 ft 473 kts 282°
2026-05-05 13:56 60.92203 -153.83708 31587 ft 473 kts 282°
2026-05-05 13:57 60.93597 -153.97000 31617 ft 472 kts 282°
2026-05-05 13:57 60.94981 -154.10326 31630 ft 472 kts 282°
2026-05-05 13:58 60.96347 -154.23608 31661 ft 472 kts 282°
2026-05-05 13:58 60.97694 -154.36853 31658 ft 472 kts 282°
2026-05-05 13:59 60.99706 -154.56897 31646 ft 472 kts 282°
2026-05-05 14:00 61.01456 -154.74609 31650 ft 471 kts 281°
2026-05-05 14:00 61.02965 -154.90089 31651 ft 470 kts 281°
2026-05-05 14:01 61.04250 -155.03426 31670 ft 470 kts 281°
2026-05-05 14:01 61.05518 -155.16730 31672 ft 469 kts 281°
2026-05-05 14:02 61.06773 -155.30061 31662 ft 469 kts 281°
2026-05-05 14:02 61.08018 -155.43420 31673 ft 469 kts 281°
2026-05-05 14:03 61.09250 -155.56801 31680 ft 468 kts 281°
2026-05-05 14:03 61.09629 -155.70372 31689 ft 469 kts 267°
2026-05-05 14:04 61.09266 -155.83958 31693 ft 469 kts 266°
2026-05-05 14:04 61.08874 -155.97516 31703 ft 469 kts 266°
2026-05-05 14:05 61.08468 -156.10974 31704 ft 469 kts 266°
2026-05-05 14:05 61.08042 -156.24556 31705 ft 468 kts 266°
2026-05-05 14:06 61.07605 -156.38089 31708 ft 468 kts 266°
2026-05-05 14:06 61.07153 -156.51611 31714 ft 469 kts 266°
2026-05-05 14:07 61.06688 -156.65100 31716 ft 469 kts 266°
2026-05-05 14:07 61.06210 -156.78563 31715 ft 470 kts 265°
2026-05-05 14:08 61.05753 -156.91132 31714 ft 471 kts 266°
2026-05-05 14:08 61.05246 -157.04668 31720 ft 470 kts 266°
2026-05-05 14:09 61.04730 -157.18089 31724 ft 469 kts 266°
2026-05-05 14:09 61.04197 -157.31598 31730 ft 469 kts 266°
2026-05-05 14:10 61.03652 -157.45087 31720 ft 470 kts 266°
2026-05-05 14:10 61.03092 -157.58592 31714 ft 471 kts 266°
2026-05-05 14:11 61.02518 -157.72098 31727 ft 471 kts 265°
2026-05-05 14:11 61.01927 -157.85681 31734 ft 470 kts 265°
2026-05-05 14:12 61.01328 -157.99146 31728 ft 470 kts 265°
2026-05-05 14:12 61.00713 -158.12643 31725 ft 470 kts 265°
2026-05-05 14:13 61.00092 -158.26000 31720 ft 469 kts 265°
2026-05-05 14:13 60.99450 -158.39488 31712 ft 469 kts 265°
2026-05-05 14:14 60.98799 -158.52889 31714 ft 467 kts 265°
2026-05-05 14:14 60.98141 -158.66180 31722 ft 467 kts 264°
2026-05-05 14:15 60.97460 -158.79642 31740 ft 468 kts 264°
2026-05-05 14:15 60.96771 -158.92995 31754 ft 468 kts 264°
2026-05-05 14:16 60.96066 -159.06389 31770 ft 468 kts 264°
2026-05-05 14:16 60.95350 -159.19737 31765 ft 468 kts 264°
2026-05-05 14:17 60.94619 -159.33122 31759 ft 468 kts 264°
2026-05-05 14:17 60.93876 -159.46460 31706 ft 467 kts 264°
2026-05-05 14:18 60.93124 -159.59731 31693 ft 466 kts 264°
2026-05-05 14:18 60.92356 -159.73058 31701 ft 466 kts 263°
2026-05-05 14:19 60.91576 -159.86340 31718 ft 465 kts 263°
2026-05-05 14:19 60.90785 -159.99597 31740 ft 465 kts 263°
2026-05-05 14:20 60.89980 -160.12836 31777 ft 463 kts 263°
2026-05-05 14:20 60.89167 -160.26019 31809 ft 464 kts 263°
2026-05-05 14:21 60.88343 -160.39151 31825 ft 464 kts 264°
2026-05-05 14:21 60.87500 -160.52365 31834 ft 464 kts 264°
2026-05-05 14:22 60.86650 -160.65485 31842 ft 463 kts 263°
2026-05-05 14:22 60.85777 -160.78737 31845 ft 463 kts 263°
2026-05-05 14:23 60.84898 -160.91885 31850 ft 463 kts 263°
2026-05-05 14:23 60.84008 -161.05003 31851 ft 464 kts 263°
2026-05-05 14:24 60.83109 -161.18071 31858 ft 464 kts 264°
2026-05-05 14:24 60.82191 -161.31203 31868 ft 464 kts 264°
2026-05-05 14:25 60.81261 -161.44310 31879 ft 463 kts 264°
2026-05-05 14:25 60.80319 -161.57417 31886 ft 463 kts 264°
2026-05-05 14:26 60.79364 -161.70509 31887 ft 463 kts 263°
2026-05-05 14:26 60.78550 -161.83591 31880 ft 460 kts 271°
2026-05-05 14:27 60.78781 -161.96739 31886 ft 459 kts 275°
2026-05-05 14:27 60.79083 -162.09793 31891 ft 459 kts 275°
2026-05-05 14:28 60.79366 -162.22881 31898 ft 458 kts 275°
2026-05-05 14:28 60.79633 -162.36002 31893 ft 458 kts 275°
2026-05-05 14:29 60.79884 -162.49087 31895 ft 457 kts 275°
2026-05-05 14:29 60.80125 -162.62297 32146 ft 468 kts 275°
2026-05-05 14:30 60.80240 -162.68951 32644 ft 465 kts 274°
2026-05-05 14:30 60.80352 -162.75606 33117 ft 462 kts 274°
2026-05-05 14:30 60.80460 -162.82216 33470 ft 463 kts 274°
2026-05-05 14:30 60.80565 -162.88840 33803 ft 465 kts 274°
2026-05-05 14:31 60.80668 -162.95528 33916 ft 467 kts 274°
2026-05-05 14:31 60.80767 -163.02190 33936 ft 466 kts 274°
2026-05-05 14:31 60.80955 -163.15491 33946 ft 464 kts 274°
2026-05-05 14:32 60.81128 -163.28674 33948 ft 464 kts 274°
2026-05-05 14:32 60.81289 -163.41980 33954 ft 463 kts 274°
2026-05-05 14:33 60.81436 -163.55162 33954 ft 462 kts 274°
2026-05-05 14:33 60.81572 -163.68451 33957 ft 463 kts 274°
2026-05-05 14:34 60.81694 -163.81738 33964 ft 464 kts 273°
2026-05-05 14:34 60.81802 -163.95009 33963 ft 464 kts 274°
2026-05-05 14:35 60.81898 -164.08254 33969 ft 463 kts 274°
2026-05-05 14:35 60.81981 -164.21533 33981 ft 463 kts 274°
2026-05-05 14:36 60.82050 -164.34796 33975 ft 463 kts 274°
2026-05-05 14:36 60.82106 -164.48021 33963 ft 461 kts 274°
2026-05-05 14:37 60.82149 -164.61246 33963 ft 461 kts 274°
2026-05-05 14:37 60.82180 -164.74530 33960 ft 462 kts 273°
2026-05-05 14:38 60.82197 -164.87740 33969 ft 461 kts 273°
2026-05-05 14:38 60.81873 -165.00884 33995 ft 466 kts 263°
2026-05-05 14:39 60.80106 -165.13823 34015 ft 470 kts 257°
2026-05-05 14:39 60.78133 -165.26663 34020 ft 470 kts 257°
2026-05-05 14:40 60.76128 -165.39473 34026 ft 469 kts 257°
2026-05-05 14:40 60.74097 -165.52281 34019 ft 469 kts 257°
2026-05-05 14:41 60.72063 -165.64980 34023 ft 469 kts 257°
2026-05-05 14:41 60.69991 -165.77802 34028 ft 469 kts 256°
2026-05-05 14:42 60.67921 -165.90517 34029 ft 470 kts 256°
2026-05-05 14:42 60.65831 -166.03252 34040 ft 470 kts 256°
2026-05-05 14:43 60.63723 -166.16007 34038 ft 470 kts 256°
2026-05-05 14:43 60.61608 -166.28705 34037 ft 470 kts 256°
2026-05-05 14:44 60.59498 -166.41290 34048 ft 468 kts 257°
2026-05-05 14:44 60.57377 -166.53859 34044 ft 469 kts 257°
2026-05-05 14:45 60.55235 -166.66460 34056 ft 469 kts 256°
2026-05-05 14:45 60.53067 -166.79129 34062 ft 470 kts 256°
2026-05-05 14:46 60.50903 -166.91684 34052 ft 470 kts 256°
2026-05-05 14:46 60.48720 -167.04269 34057 ft 471 kts 256°
2026-05-05 14:47 60.46522 -167.16850 34058 ft 469 kts 256°
2026-05-05 14:47 60.44321 -167.29366 34056 ft 469 kts 256°
2026-05-05 14:48 60.42115 -167.41827 34059 ft 468 kts 257°
2026-05-05 14:48 60.39879 -167.54376 34072 ft 469 kts 257°
2026-05-05 14:49 60.37644 -167.66836 34067 ft 469 kts 256°
2026-05-05 14:49 60.35374 -167.79408 34075 ft 470 kts 256°
2026-05-05 14:50 60.33111 -167.91855 34088 ft 472 kts 256°
2026-05-05 14:50 60.30835 -168.04298 34076 ft 471 kts 256°
2026-05-05 14:51 60.28598 -168.16721 34076 ft 470 kts 257°
2026-05-05 14:51 60.26349 -168.29213 34089 ft 470 kts 257°
2026-05-05 14:52 60.24100 -168.41608 34087 ft 469 kts 257°
2026-05-05 14:52 60.21836 -168.54001 34100 ft 471 kts 257°
2026-05-05 14:53 60.19543 -168.66469 34083 ft 470 kts 256°
2026-05-05 14:53 60.17244 -168.78888 34096 ft 471 kts 256°
2026-05-05 14:54 60.14938 -168.91257 34093 ft 471 kts 257°
2026-05-05 14:54 60.12605 -169.03697 34095 ft 473 kts 257°
2026-05-05 14:55 60.10271 -169.16061 34105 ft 473 kts 256°
2026-05-05 14:55 60.07927 -169.28401 34104 ft 472 kts 256°
2026-05-05 14:56 60.05567 -169.40742 34102 ft 472 kts 256°
2026-05-05 14:56 60.03207 -169.53005 34095 ft 470 kts 256°
2026-05-05 14:57 60.00829 -169.65297 34110 ft 471 kts 255°
2026-05-05 14:57 59.98439 -169.77567 34109 ft 473 kts 256°
2026-05-05 14:58 59.96030 -169.89851 34106 ft 472 kts 255°
2026-05-05 14:58 59.93617 -170.02092 34111 ft 472 kts 255°
2026-05-05 14:59 59.91195 -170.14291 34108 ft 472 kts 255°
2026-05-05 14:59 59.88768 -170.26448 34094 ft 470 kts 255°
2026-05-05 15:00 59.86729 -170.36606 34100 ft 471 kts 255°
2026-05-05 15:00 59.83874 -170.50738 34096 ft 470 kts 255°
2026-05-05 15:01 59.81410 -170.62863 34102 ft 471 kts 255°
2026-05-05 15:01 59.78928 -170.75000 34108 ft 472 kts 254°
2026-05-05 15:02 59.76440 -170.87087 34110 ft 470 kts 254°
2026-05-05 15:02 59.73947 -170.99135 34122 ft 470 kts 254°
2026-05-05 15:03 59.71436 -171.11194 34133 ft 470 kts 254°
2026-05-05 15:03 59.68940 -171.23116 34135 ft 471 kts 254°
2026-05-05 15:04 59.66406 -171.35144 34133 ft 469 kts 254°
2026-05-05 15:04 59.63880 -171.47066 34139 ft 468 kts 254°
2026-05-05 15:05 59.60059 -171.64969 34140 ft 468 kts 254°
2026-05-05 15:06 59.57503 -171.76863 34148 ft 469 kts 253°
2026-05-05 15:06 59.54939 -171.88722 34149 ft 469 kts 252°
2026-05-05 15:07 59.52460 -172.00688 34152 ft 467 kts 254°
2026-05-05 15:07 59.50037 -172.12639 34153 ft 469 kts 254°
2026-05-05 15:08 59.47596 -172.24570 34155 ft 469 kts 253°
2026-05-05 15:08 59.45151 -172.36433 34157 ft 469 kts 254°
2026-05-05 15:09 59.42686 -172.48315 34161 ft 468 kts 253°
2026-05-05 15:09 59.40210 -172.60175 34160 ft 467 kts 253°
2026-05-05 15:10 59.37728 -172.72000 34165 ft 468 kts 252°
2026-05-05 15:10 59.35223 -172.83859 34168 ft 468 kts 252°
2026-05-05 15:11 59.32713 -172.95673 34167 ft 467 kts 252°
2026-05-05 15:11 59.30185 -173.07504 34169 ft 468 kts 252°
2026-05-05 15:12 59.27644 -173.19327 34168 ft 468 kts 252°
2026-05-05 15:12 59.25109 -173.31053 34176 ft 467 kts 252°
2026-05-05 15:13 59.22566 -173.42757 34171 ft 467 kts 252°
2026-05-05 15:13 59.20000 -173.54492 34178 ft 467 kts 252°
2026-05-05 15:14 59.17433 -173.66168 34180 ft 467 kts 251°
2026-05-05 15:14 59.14856 -173.77830 34188 ft 467 kts 251°
2026-05-05 15:15 59.12266 -173.89481 34184 ft 466 kts 251°
2026-05-05 15:15 59.09671 -174.01091 34191 ft 467 kts 251°
2026-05-05 15:16 59.07067 -174.12683 34191 ft 467 kts 251°
2026-05-05 15:16 59.04465 -174.24254 34193 ft 466 kts 252°
2026-05-05 15:17 59.01951 -174.35867 34192 ft 465 kts 252°
2026-05-05 15:17 58.99409 -174.47540 34199 ft 466 kts 252°
2026-05-05 15:18 58.96869 -174.59128 34198 ft 464 kts 252°
2026-05-05 15:18 58.94318 -174.70689 34199 ft 464 kts 251°
2026-05-05 15:19 58.91756 -174.82237 34200 ft 464 kts 250°
2026-05-05 15:19 58.89187 -174.93755 34192 ft 466 kts 250°
2026-05-05 15:20 58.86603 -175.05269 34189 ft 466 kts 250°
2026-05-05 15:20 58.84013 -175.16748 34192 ft 464 kts 251°
2026-05-05 15:21 58.81421 -175.28169 34192 ft 463 kts 250°
2026-05-05 15:21 58.78809 -175.39622 34192 ft 462 kts 250°
2026-05-05 15:22 58.76214 -175.50941 34192 ft 462 kts 250°
2026-05-05 15:22 58.73601 -175.62274 34195 ft 461 kts 250°
2026-05-05 15:23 58.70984 -175.73567 34196 ft 461 kts 249°
2026-05-05 15:23 58.68342 -175.84907 34195 ft 461 kts 249°
2026-05-05 15:24 58.65703 -175.96176 34200 ft 461 kts 249°
2026-05-05 15:24 58.63056 -176.07416 34202 ft 460 kts 249°
2026-05-05 15:25 58.60403 -176.18626 34204 ft 459 kts 249°
2026-05-05 15:25 58.57739 -176.29825 34203 ft 460 kts 249°
2026-05-05 15:26 58.55063 -176.41013 34199 ft 460 kts 249°
2026-05-05 15:26 58.52388 -176.52145 34198 ft 459 kts 249°
2026-05-05 15:27 58.49699 -176.63274 34200 ft 459 kts 249°
2026-05-05 15:27 58.46993 -176.74419 34205 ft 459 kts 248°
2026-05-05 15:28 58.44291 -176.85487 34211 ft 459 kts 248°
2026-05-05 15:28 58.41580 -176.96536 34208 ft 458 kts 248°
2026-05-05 15:29 58.38842 -177.07643 34203 ft 458 kts 248°
2026-05-05 15:29 58.36125 -177.18639 34205 ft 458 kts 248°
2026-05-05 15:30 58.33379 -177.29724 34207 ft 458 kts 248°
2026-05-05 15:30 58.30651 -177.40678 34206 ft 458 kts 248°
2026-05-05 15:31 58.27891 -177.51704 34207 ft 457 kts 248°
2026-05-05 15:31 58.25121 -177.62718 34207 ft 457 kts 248°
2026-05-05 15:32 58.22351 -177.73677 34207 ft 458 kts 247°
2026-05-05 15:32 58.19556 -177.84679 34217 ft 458 kts 247°
2026-05-05 15:33 58.16779 -177.95557 34211 ft 458 kts 247°
2026-05-05 15:33 58.13974 -178.06488 34205 ft 457 kts 247°
2026-05-05 15:34 58.11180 -178.17322 34207 ft 457 kts 247°
2026-05-05 15:34 58.08399 -178.28058 34210 ft 456 kts 247°
2026-05-05 15:35 58.05579 -178.38892 34211 ft 457 kts 247°
2026-05-05 15:35 58.02758 -178.49674 34222 ft 456 kts 247°
2026-05-05 15:36 57.99932 -178.60426 34211 ft 456 kts 247°
2026-05-05 15:36 57.97104 -178.71133 34217 ft 455 kts 246°
2026-05-05 15:37 57.94248 -178.81897 34207 ft 455 kts 246°
2026-05-05 15:37 57.91391 -178.92613 34220 ft 457 kts 246°
2026-05-05 15:38 57.88529 -179.03293 34222 ft 455 kts 246°
2026-05-05 15:38 57.85667 -179.13925 34205 ft 454 kts 246°
2026-05-05 15:39 57.82803 -179.24516 34187 ft 454 kts 246°
2026-05-05 15:39 57.79931 -179.35088 34196 ft 454 kts 246°
2026-05-05 15:40 57.77043 -179.45666 34198 ft 451 kts 246°
2026-05-05 15:40 57.74168 -179.56152 34189 ft 451 kts 246°
2026-05-05 15:41 57.71291 -179.66594 34187 ft 450 kts 246°
2026-05-05 15:41 57.68389 -179.77081 34187 ft 450 kts 246°
2026-05-05 15:42 57.65505 -179.87456 34179 ft 448 kts 246°
2026-05-05 15:42 57.62620 -179.97783 34195 ft 448 kts 246°
2026-05-05 15:43 57.59734 179.91930 34204 ft 446 kts 246°
2026-05-05 15:43 57.56807 179.81541 34189 ft 446 kts 246°
2026-05-05 15:44 57.53910 179.71307 34189 ft 447 kts 246°
2026-05-05 15:44 57.50984 179.61018 34193 ft 446 kts 247°
2026-05-05 15:45 57.48058 179.50771 34191 ft 446 kts 247°
2026-05-05 15:45 57.45148 179.40630 34178 ft 444 kts 247°
2026-05-05 15:46 57.42207 179.30418 34194 ft 444 kts 246°
2026-05-05 15:46 57.39276 179.20293 34196 ft 444 kts 246°
2026-05-05 15:47 57.36322 179.10127 34188 ft 444 kts 246°
2026-05-05 15:47 57.33379 179.00049 34194 ft 444 kts 246°
2026-05-05 15:48 57.30436 178.90008 34189 ft 442 kts 246°
2026-05-05 15:48 57.27469 178.79933 34188 ft 442 kts 246°
2026-05-05 15:49 57.24521 178.69968 34181 ft 441 kts 246°
2026-05-05 15:49 57.21556 178.59984 34182 ft 442 kts 246°
2026-05-05 15:50 57.18578 178.50001 34181 ft 440 kts 246°
2026-05-05 15:50 57.15595 178.40039 34177 ft 442 kts 246°
2026-05-05 15:51 57.12606 178.30107 34181 ft 443 kts 245°
2026-05-05 15:51 57.09580 178.20090 34178 ft 443 kts 245°
2026-05-05 15:52 57.06562 178.10144 34178 ft 442 kts 245°
2026-05-05 15:52 57.03534 178.00205 34179 ft 443 kts 245°
2026-05-05 15:53 57.00515 177.90338 34175 ft 444 kts 244°
2026-05-05 15:53 56.97455 177.80380 34168 ft 444 kts 244°
2026-05-05 15:54 56.94405 177.70497 34165 ft 444 kts 244°
2026-05-05 15:54 56.91334 177.60585 34166 ft 442 kts 244°
2026-05-05 15:55 56.88260 177.50708 34158 ft 443 kts 244°
2026-05-05 15:55 56.85203 177.40921 34154 ft 443 kts 244°
2026-05-05 15:56 56.82132 177.31143 34157 ft 442 kts 243°
2026-05-05 15:56 56.79015 177.21306 34157 ft 443 kts 243°
2026-05-05 15:57 56.75909 177.11539 34146 ft 444 kts 242°
2026-05-05 15:57 56.72789 177.01769 34149 ft 445 kts 242°
2026-05-05 15:58 56.69662 176.92015 34144 ft 444 kts 242°
2026-05-05 15:58 56.66518 176.82250 34138 ft 443 kts 242°
2026-05-05 15:59 56.63376 176.72531 34136 ft 443 kts 242°
2026-05-05 15:59 56.60242 176.62874 34135 ft 443 kts 242°
2026-05-05 16:00 56.57104 176.53244 34130 ft 443 kts 242°
2026-05-05 16:00 56.53959 176.43633 34127 ft 442 kts 242°
2026-05-05 16:01 56.50798 176.34010 34125 ft 442 kts 241°
2026-05-05 16:01 56.47621 176.24377 34127 ft 442 kts 240°
2026-05-05 16:02 56.44451 176.14804 34123 ft 441 kts 240°
2026-05-05 16:02 56.41261 176.05211 34124 ft 442 kts 240°
2026-05-05 16:03 56.38076 175.95668 34120 ft 442 kts 240°
2026-05-05 16:03 56.34864 175.86084 34118 ft 443 kts 240°
2026-05-05 16:04 56.31654 175.76541 34105 ft 443 kts 240°
2026-05-05 16:04 56.28426 175.66986 34103 ft 442 kts 240°
2026-05-05 16:05 56.25212 175.57509 34091 ft 442 kts 240°
2026-05-05 16:05 56.21995 175.48062 34082 ft 441 kts 240°
2026-05-05 16:06 56.18760 175.38596 34079 ft 442 kts 240°
2026-05-05 16:06 56.15526 175.29173 34078 ft 441 kts 239°
2026-05-05 16:07 56.12288 175.19775 34076 ft 440 kts 239°
2026-05-05 16:07 56.09034 175.10365 34071 ft 442 kts 239°
2026-05-05 16:08 56.05788 175.01015 34070 ft 441 kts 239°
2026-05-05 16:08 56.02537 174.91685 34064 ft 441 kts 238°
2026-05-05 16:09 55.99274 174.82359 34061 ft 442 kts 238°
2026-05-05 16:09 55.95977 174.72975 34043 ft 440 kts 238°
2026-05-05 16:10 55.92708 174.63701 34042 ft 440 kts 238°
2026-05-05 16:10 55.89425 174.54425 34030 ft 439 kts 238°
2026-05-05 16:11 55.86143 174.45186 34040 ft 439 kts 238°
2026-05-05 16:12 55.79599 174.26869 34039 ft 434 kts 237°
2026-05-05 16:13 55.71398 174.04109 34026 ft 435 kts 237°
2026-05-05 16:13 55.68108 173.95038 34016 ft 434 kts 237°
2026-05-05 16:14 55.61526 173.76987 33983 ft 434 kts 236°
2026-05-05 16:15 55.54922 173.59013 33987 ft 432 kts 236°
2026-05-05 16:16 55.48331 173.41203 33970 ft 432 kts 236°
2026-05-05 16:17 55.43368 173.27878 33967 ft 432 kts 235°
2026-05-05 16:18 55.38385 173.14569 33957 ft 433 kts 235°
2026-05-05 16:19 55.33371 173.01253 33942 ft 433 kts 235°
2026-05-05 16:19 55.28364 172.88023 33921 ft 430 kts 235°
2026-05-05 16:20 55.21685 172.70491 33920 ft 430 kts 234°
2026-05-05 16:22 55.13328 172.48723 33890 ft 427 kts 234°
2026-05-05 16:23 55.06629 172.31415 33873 ft 429 kts 234°
2026-05-05 16:23 55.01584 172.18457 33880 ft 426 kts 233°
2026-05-05 16:24 54.98227 172.09874 33861 ft 425 kts 233°
2026-05-05 16:25 54.93125 171.97118 33857 ft 424 kts 230°
2026-05-05 16:25 54.87486 171.85060 33840 ft 424 kts 229°
2026-05-05 16:26 54.79962 171.69168 33846 ft 425 kts 229°
2026-05-05 16:27 54.76191 171.61252 33831 ft 423 kts 229°
2026-05-05 16:27 54.72419 171.53360 33833 ft 424 kts 229°
2026-05-05 16:28 54.68642 171.45485 33822 ft 424 kts 229°
2026-05-05 16:28 54.64839 171.37581 33807 ft 423 kts 228°
2026-05-05 16:29 54.61055 171.29744 33803 ft 423 kts 227°
2026-05-05 16:29 54.57268 171.21922 33803 ft 423 kts 227°
2026-05-05 16:30 54.53441 171.14046 33789 ft 424 kts 227°
2026-05-05 16:30 54.49618 171.06203 33784 ft 424 kts 227°
2026-05-05 16:31 54.45827 170.98450 33777 ft 423 kts 227°
2026-05-05 16:31 54.42022 170.90694 33777 ft 424 kts 227°
2026-05-05 16:32 54.38176 170.82877 33764 ft 424 kts 227°
2026-05-05 16:32 54.34358 170.75143 33751 ft 424 kts 227°
2026-05-05 16:33 54.30542 170.67436 33749 ft 424 kts 227°
2026-05-05 16:33 54.26695 170.59694 33740 ft 424 kts 227°
2026-05-05 16:34 54.22826 170.51927 33733 ft 423 kts 227°
2026-05-05 16:34 54.18981 170.44237 33723 ft 422 kts 227°
2026-05-05 16:35 54.15149 170.36595 33709 ft 424 kts 227°
2026-05-05 16:35 54.11278 170.28900 33700 ft 423 kts 226°
2026-05-05 16:36 54.07442 170.21298 33692 ft 422 kts 226°
2026-05-05 16:36 54.03588 170.13686 33692 ft 424 kts 226°
2026-05-05 16:37 53.99689 170.06006 33676 ft 425 kts 226°
2026-05-05 16:37 53.95808 169.98386 33675 ft 425 kts 226°
2026-05-05 16:38 53.91927 169.90790 33664 ft 424 kts 226°
2026-05-05 16:38 53.88055 169.83235 33681 ft 424 kts 226°
2026-05-05 16:39 53.84152 169.75642 33666 ft 422 kts 226°
2026-05-05 16:39 53.80273 169.68120 33659 ft 421 kts 226°
2026-05-05 16:40 53.76398 169.60631 33657 ft 422 kts 226°
2026-05-05 16:40 53.72531 169.53175 33657 ft 420 kts 226°
2026-05-05 16:41 53.68637 169.45692 33639 ft 421 kts 226°
2026-05-05 16:41 53.64739 169.38226 33634 ft 421 kts 226°
2026-05-05 16:42 53.61334 169.30136 33627 ft 426 kts 237°
2026-05-05 16:42 53.58509 169.21237 33609 ft 427 kts 237°
2026-05-05 16:43 53.55682 169.12366 33612 ft 430 kts 237°
2026-05-05 16:43 53.52833 169.03479 33595 ft 429 kts 237°
2026-05-05 16:44 53.49960 168.94566 33589 ft 430 kts 237°
2026-05-05 16:44 53.47106 168.85745 33581 ft 431 kts 237°
2026-05-05 16:45 53.44200 168.76800 33564 ft 431 kts 236°
2026-05-05 16:45 53.41293 168.67888 33560 ft 432 kts 237°
2026-05-05 16:46 53.38403 168.59059 33557 ft 430 kts 236°
2026-05-05 16:46 53.35498 168.50218 33551 ft 432 kts 236°
2026-05-05 16:47 53.32573 168.41350 33544 ft 435 kts 236°
2026-05-05 16:47 53.29647 168.32509 33530 ft 433 kts 236°
2026-05-05 16:48 53.26707 168.23688 33517 ft 434 kts 236°
2026-05-05 16:48 53.23745 168.14831 33530 ft 433 kts 236°
2026-05-05 16:49 53.20785 168.06017 33522 ft 435 kts 236°
2026-05-05 16:49 53.17813 167.97192 33515 ft 434 kts 236°
2026-05-05 16:50 53.14824 167.88353 33501 ft 436 kts 236°
2026-05-05 16:50 53.11811 167.79472 33495 ft 437 kts 236°
2026-05-05 16:51 53.08799 167.70625 33481 ft 437 kts 236°
2026-05-05 16:51 53.05790 167.61819 33480 ft 438 kts 236°
2026-05-05 16:52 53.02752 167.52962 33467 ft 437 kts 236°
2026-05-05 16:52 52.99725 167.44167 33454 ft 438 kts 236°
2026-05-05 16:53 52.96668 167.35318 33457 ft 439 kts 236°
2026-05-05 16:53 52.93604 167.26477 33441 ft 441 kts 236°
2026-05-05 16:54 52.90536 167.17658 33443 ft 441 kts 236°
2026-05-05 16:54 52.87459 167.08843 33468 ft 441 kts 235°
2026-05-05 16:55 52.84347 166.99962 33445 ft 442 kts 236°
2026-05-05 16:55 52.81250 166.91153 33446 ft 441 kts 236°
2026-05-05 16:56 52.78136 166.82327 33446 ft 441 kts 236°
2026-05-05 16:56 52.75031 166.73557 33443 ft 443 kts 236°
2026-05-05 16:57 52.71892 166.64722 33438 ft 443 kts 236°
2026-05-05 16:57 52.68761 166.55942 33432 ft 444 kts 236°
2026-05-05 16:58 52.65611 166.47137 33434 ft 444 kts 236°
2026-05-05 16:58 52.62439 166.38304 33432 ft 445 kts 236°
2026-05-05 16:59 52.59274 166.29521 33434 ft 445 kts 235°
2026-05-05 16:59 52.56088 166.20709 33426 ft 445 kts 235°
2026-05-05 17:00 52.52902 166.11931 33412 ft 445 kts 236°
2026-05-05 17:00 52.49717 166.03185 33409 ft 445 kts 236°
2026-05-05 17:01 52.46513 165.94414 33403 ft 446 kts 236°
2026-05-05 17:01 52.43308 165.85673 33406 ft 447 kts 236°
2026-05-05 17:02 52.40073 165.76883 33394 ft 447 kts 236°
2026-05-05 17:02 52.36839 165.68126 33400 ft 446 kts 236°
2026-05-05 17:03 52.33608 165.59404 33395 ft 447 kts 236°
2026-05-05 17:03 52.30361 165.50671 33393 ft 446 kts 236°
2026-05-05 17:04 52.27106 165.41945 33386 ft 446 kts 236°
2026-05-05 17:04 52.23862 165.33281 33398 ft 446 kts 235°
2026-05-05 17:05 52.20591 165.24573 33389 ft 446 kts 235°
2026-05-05 17:05 52.17313 165.15878 33383 ft 447 kts 235°
2026-05-05 17:06 52.14046 165.07240 33385 ft 447 kts 235°
2026-05-05 17:06 52.10741 164.98532 33377 ft 447 kts 235°
2026-05-05 17:07 52.07458 164.89912 33372 ft 448 kts 236°
2026-05-05 17:07 52.04139 164.81223 33370 ft 448 kts 236°
2026-05-05 17:08 52.00835 164.72607 33370 ft 448 kts 236°
2026-05-05 17:08 51.97518 164.63985 33363 ft 449 kts 236°
2026-05-05 17:09 51.94168 164.55307 33366 ft 449 kts 236°
2026-05-05 17:09 51.90837 164.46709 33361 ft 451 kts 236°
2026-05-05 17:10 51.87469 164.38040 33373 ft 450 kts 236°
2026-05-05 17:10 51.84126 164.29468 33376 ft 449 kts 235°
2026-05-05 17:11 51.80760 164.20865 33374 ft 450 kts 235°
2026-05-05 17:11 51.77381 164.12257 33347 ft 450 kts 235°
2026-05-05 17:12 51.74015 164.03713 33363 ft 451 kts 235°
2026-05-05 17:12 51.70603 163.95077 33367 ft 451 kts 236°
2026-05-05 17:13 51.67216 163.86537 33359 ft 451 kts 236°
2026-05-05 17:13 51.63827 163.78018 33369 ft 450 kts 236°
2026-05-05 17:14 51.60409 163.69457 33357 ft 450 kts 236°
2026-05-05 17:14 51.56996 163.60931 33357 ft 451 kts 236°
2026-05-05 17:15 51.53599 163.52478 33369 ft 449 kts 236°
2026-05-05 17:15 51.50180 163.43993 33350 ft 450 kts 236°
2026-05-05 17:16 51.46793 163.35617 33354 ft 450 kts 236°
2026-05-05 17:16 51.43332 163.27086 33364 ft 449 kts 235°
2026-05-05 17:17 51.39888 163.18628 33361 ft 450 kts 236°
2026-05-05 17:17 51.36433 163.10165 33358 ft 449 kts 236°
2026-05-05 17:18 51.32984 163.01749 33350 ft 449 kts 236°
2026-05-05 17:18 51.29547 162.93387 33351 ft 449 kts 236°
2026-05-05 17:19 51.26093 162.85008 33349 ft 448 kts 236°
2026-05-05 17:19 51.22656 162.76703 33360 ft 446 kts 236°
2026-05-05 17:20 51.19197 162.68370 33363 ft 448 kts 236°
2026-05-05 17:20 51.15733 162.60049 33369 ft 447 kts 236°
2026-05-05 17:21 51.12286 162.51796 33357 ft 447 kts 236°
2026-05-05 17:22 51.07060 162.39336 33349 ft 448 kts 236°
2026-05-05 17:22 51.03590 162.31094 33359 ft 448 kts 235°
2026-05-05 17:23 51.00095 162.22818 33362 ft 448 kts 236°
2026-05-05 17:23 50.96598 162.14568 33375 ft 447 kts 236°
2026-05-05 17:24 50.93121 162.06384 33372 ft 447 kts 236°
2026-05-05 17:24 50.89601 161.98132 33372 ft 448 kts 236°
2026-05-05 17:25 50.86087 161.89917 33377 ft 447 kts 236°
2026-05-05 17:25 50.82592 161.81770 33379 ft 447 kts 236°
2026-05-05 17:26 50.79064 161.73575 33392 ft 446 kts 236°
2026-05-05 17:26 50.75534 161.65401 33388 ft 446 kts 236°
2026-05-05 17:27 50.72026 161.57300 33396 ft 445 kts 236°
2026-05-05 17:27 50.68509 161.49206 33396 ft 444 kts 236°
2026-05-05 17:28 50.64980 161.41109 33406 ft 444 kts 236°
2026-05-05 17:28 50.61435 161.33000 33385 ft 445 kts 235°
2026-05-05 17:29 50.57903 161.24947 33410 ft 445 kts 236°
2026-05-05 17:29 50.54356 161.16882 33414 ft 446 kts 236°
2026-05-05 17:30 50.50819 161.08867 33410 ft 445 kts 236°
2026-05-05 17:30 50.47249 161.00800 33419 ft 446 kts 236°
2026-05-05 17:31 50.43703 160.92812 33415 ft 445 kts 236°
2026-05-05 17:31 50.40126 160.84779 33411 ft 445 kts 236°
2026-05-05 17:32 50.36547 160.76765 33421 ft 445 kts 236°
2026-05-05 17:32 50.32990 160.68828 33453 ft 444 kts 236°
2026-05-05 17:33 50.29409 160.60857 33442 ft 444 kts 236°
2026-05-05 17:33 50.25850 160.52962 33428 ft 443 kts 236°
2026-05-05 17:34 50.22281 160.45065 33444 ft 443 kts 236°
2026-05-05 17:34 50.18686 160.37141 33441 ft 443 kts 236°
2026-05-05 17:35 50.15104 160.29306 33465 ft 443 kts 235°
2026-05-05 17:35 50.11485 160.21414 33461 ft 443 kts 235°
2026-05-05 17:36 50.07867 160.13544 33465 ft 443 kts 236°
2026-05-05 17:36 50.04261 160.05725 33463 ft 443 kts 236°
2026-05-05 17:37 50.00631 159.97878 33476 ft 444 kts 236°
2026-05-05 17:37 49.97016 159.90083 33466 ft 443 kts 236°
2026-05-05 17:38 49.93377 159.82263 33475 ft 442 kts 236°
2026-05-05 17:38 49.89744 159.74477 33495 ft 441 kts 236°
2026-05-05 17:39 49.86134 159.66762 33501 ft 440 kts 236°
2026-05-05 17:39 49.82492 159.59003 33502 ft 440 kts 236°
2026-05-05 17:40 49.78876 159.51321 33510 ft 441 kts 236°
2026-05-05 17:40 49.75226 159.43591 33497 ft 441 kts 236°
2026-05-05 17:41 49.71592 159.35915 33506 ft 441 kts 236°
2026-05-05 17:41 49.67909 159.28307 33511 ft 441 kts 234°
2026-05-05 17:42 49.64176 159.20705 33511 ft 441 kts 235°
2026-05-05 17:42 49.60465 159.13161 33517 ft 440 kts 234°
2026-05-05 17:43 49.56723 159.05569 33538 ft 440 kts 235°
2026-05-05 17:43 49.52998 158.98035 33545 ft 439 kts 235°
2026-05-05 17:44 49.49260 158.90492 33546 ft 438 kts 235°
2026-05-05 17:44 49.45555 158.83040 33546 ft 440 kts 235°
2026-05-05 17:44 49.43669 158.79250 33685 ft 449 kts 235°
2026-05-05 17:45 49.41740 158.75383 34235 ft 448 kts 234°
2026-05-05 17:45 49.39854 158.71608 34901 ft 443 kts 234°
2026-05-05 17:45 49.37985 158.67871 35410 ft 442 kts 234°
2026-05-05 17:45 49.36096 158.64099 35547 ft 446 kts 234°
2026-05-05 17:46 49.34177 158.60274 35565 ft 445 kts 234°
2026-05-05 17:46 49.30385 158.52731 35580 ft 442 kts 234°
2026-05-05 17:47 49.26604 158.45229 35567 ft 443 kts 234°
2026-05-05 17:47 49.22805 158.37715 35573 ft 444 kts 234°
2026-05-05 17:48 49.18973 158.30156 35581 ft 443 kts 234°
2026-05-05 17:48 49.15173 158.22679 35598 ft 443 kts 234°
2026-05-05 17:49 49.11377 158.15233 35597 ft 443 kts 234°
2026-05-05 17:49 49.07555 158.07758 35605 ft 443 kts 234°
2026-05-05 17:50 49.03745 158.00326 35613 ft 444 kts 234°
2026-05-05 17:50 48.99935 157.92914 35618 ft 444 kts 234°
2026-05-05 17:51 48.96090 157.85455 35636 ft 443 kts 234°
2026-05-05 17:51 48.92268 157.78062 35654 ft 444 kts 234°
2026-05-05 17:52 48.88444 157.70686 35646 ft 442 kts 234°
2026-05-05 17:52 48.84591 157.63274 35645 ft 442 kts 234°
2026-05-05 17:53 48.80769 157.55942 35646 ft 441 kts 234°
2026-05-05 17:53 48.76930 157.48596 35643 ft 440 kts 234°
2026-05-05 17:54 48.73116 157.41319 35642 ft 440 kts 235°
2026-05-05 17:54 48.69284 157.34027 35663 ft 439 kts 234°
2026-05-05 17:55 48.65423 157.26700 35672 ft 441 kts 234°
2026-05-05 17:55 48.61577 157.19421 35674 ft 439 kts 234°
2026-05-05 17:56 48.57731 157.12163 35672 ft 438 kts 234°
2026-05-05 17:56 48.53892 157.04939 35669 ft 438 kts 234°
2026-05-05 17:57 48.50068 156.97759 35684 ft 438 kts 234°
2026-05-05 17:57 48.46210 156.90536 35687 ft 438 kts 234°
2026-05-05 17:58 48.42387 156.83400 35698 ft 437 kts 235°
2026-05-05 17:58 48.38529 156.76213 35696 ft 438 kts 235°
2026-05-05 17:59 48.34691 156.69087 35706 ft 436 kts 235°
2026-05-05 17:59 48.30854 156.61980 35705 ft 436 kts 235°
2026-05-05 18:00 48.27015 156.54887 35700 ft 435 kts 235°
2026-05-05 18:00 48.23158 156.47780 35705 ft 436 kts 235°
2026-05-05 18:01 48.19309 156.40707 35697 ft 436 kts 235°
2026-05-05 18:01 48.15423 156.33585 35716 ft 436 kts 234°
2026-05-05 18:02 48.11568 156.26538 35719 ft 437 kts 234°
2026-05-05 18:02 48.07700 156.19485 35743 ft 434 kts 234°
2026-05-05 18:03 48.03827 156.12442 35749 ft 434 kts 235°
2026-05-05 18:03 47.99977 156.05461 35742 ft 432 kts 235°
2026-05-05 18:04 47.96083 155.98413 35754 ft 434 kts 235°
2026-05-05 18:04 47.92185 155.91382 35741 ft 433 kts 235°
2026-05-05 18:05 47.88305 155.84399 35751 ft 432 kts 235°
2026-05-05 18:05 47.84433 155.77449 35765 ft 431 kts 235°
2026-05-05 18:06 47.80561 155.70519 35751 ft 431 kts 235°
2026-05-05 18:06 47.76695 155.63614 35751 ft 432 kts 235°
2026-05-05 18:07 47.72836 155.56738 35747 ft 430 kts 235°
2026-05-05 18:07 47.68953 155.49841 35744 ft 432 kts 236°
2026-05-05 18:08 47.65080 155.42976 35754 ft 430 kts 235°
2026-05-05 18:08 47.61207 155.36130 35744 ft 431 kts 236°
2026-05-05 18:09 47.57330 155.29294 35766 ft 430 kts 235°
2026-05-05 18:09 47.53442 155.22456 35761 ft 430 kts 235°
2026-05-05 18:10 47.49555 155.15637 35747 ft 429 kts 235°
2026-05-05 18:10 47.45656 155.08815 35759 ft 429 kts 235°
2026-05-05 18:11 47.41785 155.02058 35759 ft 427 kts 235°
2026-05-05 18:11 47.37908 154.95306 35772 ft 429 kts 236°
2026-05-05 18:12 47.34033 154.88577 35782 ft 428 kts 236°
2026-05-05 18:12 47.30150 154.81847 35785 ft 430 kts 236°
2026-05-05 18:13 47.26245 154.75101 35794 ft 429 kts 236°
2026-05-05 18:13 47.22329 154.68350 35778 ft 427 kts 236°
2026-05-05 18:14 47.18461 154.61700 35780 ft 426 kts 236°
2026-05-05 18:14 47.14562 154.55009 35768 ft 427 kts 236°
2026-05-05 18:15 47.10648 154.48312 35771 ft 427 kts 236°
2026-05-05 18:15 47.06769 154.41692 35780 ft 426 kts 236°
2026-05-05 18:16 47.02884 154.35075 35785 ft 426 kts 236°
2026-05-05 18:16 46.98991 154.28462 35798 ft 425 kts 236°
2026-05-05 18:17 46.95103 154.21872 35798 ft 427 kts 236°
2026-05-05 18:17 46.91194 154.15266 35796 ft 423 kts 236°
2026-05-05 18:18 46.87289 154.08679 35783 ft 425 kts 237°
2026-05-05 18:18 46.83403 154.02145 35817 ft 422 kts 237°
2026-05-05 18:19 46.79555 153.95688 35802 ft 418 kts 237°
2026-05-05 18:19 46.75659 153.89160 35793 ft 421 kts 237°
2026-05-05 18:20 46.71790 153.82700 35806 ft 421 kts 237°
2026-05-05 18:20 46.67901 153.76219 35794 ft 420 kts 237°
2026-05-05 18:21 46.64037 153.69797 35811 ft 418 kts 237°
2026-05-05 18:21 46.60175 153.63390 35799 ft 419 kts 237°
2026-05-05 18:22 46.56305 153.56987 35821 ft 419 kts 237°
2026-05-05 18:22 46.52439 153.50606 35813 ft 417 kts 238°
2026-05-05 18:23 46.48590 153.44266 35805 ft 418 kts 238°
2026-05-05 18:23 46.44733 153.37932 35811 ft 414 kts 237°
2026-05-05 18:24 46.40884 153.31618 35841 ft 416 kts 237°
2026-05-05 18:24 46.37028 153.25311 35835 ft 419 kts 237°
2026-05-05 18:25 46.33133 153.18959 35827 ft 415 kts 237°
2026-05-05 18:25 46.29298 153.12715 35827 ft 413 kts 237°
2026-05-05 18:26 46.25415 153.06407 35832 ft 416 kts 237°
2026-05-05 18:26 46.21565 153.00176 35834 ft 415 kts 237°
2026-05-05 18:27 46.17694 152.93985 35823 ft 414 kts 237°
2026-05-05 18:27 46.13809 152.87790 35825 ft 413 kts 237°
2026-05-05 18:28 46.07997 152.78543 35823 ft 413 kts 237°
2026-05-05 18:28 46.04125 152.72404 35801 ft 414 kts 237°
2026-05-05 18:29 46.00213 152.66213 35809 ft 412 kts 237°
2026-05-05 18:29 45.96352 152.60115 35820 ft 415 kts 237°
2026-05-05 18:30 45.92460 152.53986 35808 ft 413 kts 237°
2026-05-05 18:30 45.88554 152.47849 35797 ft 409 kts 237°
2026-05-05 18:31 45.84685 152.41779 35826 ft 411 kts 237°
2026-05-05 18:31 45.80818 152.35727 35821 ft 414 kts 237°
2026-05-05 18:32 45.76872 152.29565 35845 ft 416 kts 237°
2026-05-05 18:32 45.72946 152.23453 35828 ft 412 kts 237°
2026-05-05 18:33 45.69053 152.17398 35846 ft 416 kts 237°
2026-05-05 18:33 45.65091 152.11253 35848 ft 415 kts 236°
2026-05-05 18:34 45.61165 152.05180 35837 ft 413 kts 236°
2026-05-05 18:34 45.57230 151.99106 35845 ft 412 kts 236°
2026-05-05 18:35 45.53296 151.93043 35836 ft 415 kts 236°
2026-05-05 18:35 45.49316 151.86926 35832 ft 416 kts 236°
2026-05-05 18:36 45.45369 151.80873 35822 ft 414 kts 237°
2026-05-05 18:36 45.41408 151.74811 35833 ft 419 kts 236°
2026-05-05 18:37 45.37429 151.68739 35817 ft 413 kts 237°
2026-05-05 18:37 45.33447 151.62668 35826 ft 418 kts 237°
2026-05-05 18:38 45.31461 151.59653 35675 ft 412 kts 236°
2026-05-05 18:38 45.29485 151.56648 35783 ft 416 kts 236°
2026-05-05 18:38 45.25502 151.50601 35836 ft 419 kts 236°
2026-05-05 18:39 45.21497 151.44544 35831 ft 419 kts 236°
2026-05-05 18:39 45.17464 151.38454 35841 ft 421 kts 236°
2026-05-05 18:40 45.13456 151.32414 35852 ft 419 kts 236°
2026-05-05 18:40 45.09438 151.26373 35867 ft 418 kts 236°
2026-05-05 18:41 45.05408 151.20328 35887 ft 419 kts 235°
2026-05-05 18:41 45.01392 151.14316 35871 ft 419 kts 236°
2026-05-05 18:42 44.97358 151.08290 35900 ft 420 kts 235°
2026-05-05 18:42 44.93332 151.02292 35869 ft 420 kts 235°
2026-05-05 18:43 44.89289 150.96280 35888 ft 418 kts 235°
2026-05-05 18:43 44.85236 150.90263 35869 ft 419 kts 236°
2026-05-05 18:44 44.81196 150.84283 35858 ft 420 kts 235°
2026-05-05 18:44 44.77155 150.78313 35877 ft 419 kts 235°
2026-05-05 18:45 44.73077 150.72301 35880 ft 421 kts 235°
2026-05-05 18:45 44.69014 150.66324 35883 ft 420 kts 235°
2026-05-05 18:46 44.64967 150.60385 35897 ft 420 kts 235°
2026-05-05 18:46 44.60899 150.54427 35888 ft 420 kts 235°
2026-05-05 18:47 44.56823 150.48468 35889 ft 421 kts 235°
2026-05-05 18:47 44.52782 150.42578 35884 ft 418 kts 234°
2026-05-05 18:48 44.48711 150.36650 35887 ft 420 kts 235°
2026-05-05 18:48 44.44609 150.30693 35909 ft 424 kts 234°
2026-05-05 18:49 44.40481 150.24712 35912 ft 422 kts 234°
2026-05-05 18:49 44.36375 150.18776 35909 ft 424 kts 234°
2026-05-05 18:50 44.32252 150.12828 35913 ft 423 kts 234°
2026-05-05 18:50 44.28141 150.06911 35935 ft 423 kts 234°
2026-05-05 18:51 44.24041 150.01022 35911 ft 421 kts 234°
2026-05-05 18:51 44.19912 149.95102 35909 ft 423 kts 234°
2026-05-05 18:52 44.15797 149.89217 35909 ft 423 kts 234°
2026-05-05 18:52 44.11662 149.83315 35911 ft 422 kts 234°
2026-05-05 18:53 44.07560 149.77472 35914 ft 422 kts 234°
2026-05-05 18:53 44.03434 149.71606 35919 ft 422 kts 234°
2026-05-05 18:54 43.99290 149.65730 35919 ft 421 kts 233°
2026-05-05 18:54 43.95153 149.59874 35931 ft 423 kts 234°
2026-05-05 18:55 43.91000 149.54010 35930 ft 422 kts 234°
2026-05-05 18:55 43.86847 149.48155 35925 ft 423 kts 233°
2026-05-05 18:56 43.82688 149.42308 35926 ft 423 kts 233°
2026-05-05 18:56 43.78536 149.36481 35930 ft 423 kts 233°
2026-05-05 18:57 43.74381 149.30659 35948 ft 425 kts 233°
2026-05-05 18:57 43.70183 149.24795 35959 ft 424 kts 233°
2026-05-05 18:58 43.66003 149.18965 35967 ft 426 kts 233°
2026-05-05 18:58 43.61795 149.13109 35957 ft 427 kts 233°
2026-05-05 18:59 43.57612 149.07301 35962 ft 427 kts 233°
2026-05-05 18:59 43.53394 149.01457 35967 ft 424 kts 233°
2026-05-05 19:00 43.49159 148.95599 35967 ft 425 kts 232°
2026-05-05 19:00 43.44991 148.89847 35971 ft 427 kts 233°
2026-05-05 19:01 43.40767 148.84030 35973 ft 425 kts 233°
2026-05-05 19:01 43.36547 148.78232 35970 ft 425 kts 232°
2026-05-05 19:02 43.32339 148.72461 35978 ft 426 kts 232°
2026-05-05 19:02 43.28098 148.66656 35985 ft 427 kts 232°
2026-05-05 19:03 43.23876 148.60893 35973 ft 425 kts 233°
2026-05-05 19:03 43.19655 148.55139 35978 ft 426 kts 232°
2026-05-05 19:04 43.15420 148.49379 35989 ft 429 kts 232°
2026-05-05 19:04 43.11191 148.43639 35983 ft 428 kts 232°
2026-05-05 19:05 43.06926 148.37865 35987 ft 426 kts 232°
2026-05-05 19:05 43.02702 148.32153 36007 ft 427 kts 231°
2026-05-05 19:06 42.98420 148.26378 36016 ft 428 kts 231°
2026-05-05 19:06 42.94167 148.20653 36005 ft 427 kts 232°
2026-05-05 19:07 42.89912 148.14938 36012 ft 427 kts 232°
2026-05-05 19:07 42.85656 148.09233 36010 ft 424 kts 231°
2026-05-05 19:08 42.81408 148.03549 36014 ft 426 kts 231°
2026-05-05 19:08 42.77143 147.97855 36018 ft 427 kts 231°
2026-05-05 19:09 42.72906 147.92210 36026 ft 425 kts 231°
2026-05-05 19:09 42.68653 147.86556 36019 ft 424 kts 231°
2026-05-05 19:10 42.64393 147.80899 36024 ft 427 kts 231°
2026-05-05 19:10 42.60130 147.75255 36029 ft 425 kts 231°
2026-05-05 19:11 42.55871 147.69627 36030 ft 423 kts 231°
2026-05-05 19:11 42.51601 147.63994 36041 ft 424 kts 231°
2026-05-05 19:12 42.47369 147.58423 36038 ft 424 kts 231°
2026-05-05 19:12 42.43108 147.52824 36030 ft 425 kts 231°
2026-05-05 19:13 42.38848 147.47240 36046 ft 424 kts 231°
2026-05-05 19:13 42.34570 147.41632 36048 ft 423 kts 231°
2026-05-05 19:14 42.30299 147.36043 36045 ft 424 kts 231°
2026-05-05 19:14 42.25990 147.30415 36066 ft 424 kts 230°
2026-05-05 19:15 42.21730 147.24863 36080 ft 424 kts 230°
2026-05-05 19:15 42.17470 147.19324 36086 ft 423 kts 230°
2026-05-05 19:16 42.13232 147.13821 36073 ft 421 kts 230°
2026-05-05 19:16 42.08954 147.08278 36103 ft 423 kts 230°
2026-05-05 19:17 42.04697 147.02776 36086 ft 420 kts 230°
2026-05-05 19:17 42.00416 146.97249 36083 ft 425 kts 230°
2026-05-05 19:18 41.96131 146.91730 36073 ft 423 kts 230°
2026-05-05 19:18 41.91884 146.86272 36097 ft 423 kts 229°
2026-05-05 19:19 41.87582 146.80745 36086 ft 422 kts 230°
2026-05-05 19:19 41.83311 146.75261 36094 ft 425 kts 230°
2026-05-05 19:20 41.79024 146.69771 36088 ft 423 kts 230°
2026-05-05 19:20 41.74748 146.64305 36097 ft 423 kts 230°
2026-05-05 19:21 41.70463 146.58838 36094 ft 422 kts 230°
2026-05-05 19:21 41.66127 146.53317 36090 ft 423 kts 230°
2026-05-05 19:22 41.61832 146.47859 36108 ft 421 kts 229°
2026-05-05 19:22 41.57553 146.42430 36103 ft 424 kts 229°
2026-05-05 19:23 41.53240 146.36972 36103 ft 424 kts 229°
2026-05-05 19:23 41.48921 146.31512 36121 ft 426 kts 229°
2026-05-05 19:24 41.44604 146.26071 36132 ft 425 kts 228°
2026-05-05 19:24 41.40293 146.20645 36134 ft 425 kts 228°
2026-05-05 19:25 41.35966 146.15208 36126 ft 422 kts 228°
2026-05-05 19:25 41.31634 146.09778 36123 ft 424 kts 228°
2026-05-05 19:26 41.27333 146.04395 36138 ft 425 kts 228°
2026-05-05 19:26 41.23008 145.98993 36134 ft 424 kts 228°
2026-05-05 19:27 41.18672 145.93587 36147 ft 426 kts 228°
2026-05-05 19:27 41.14303 145.88152 36132 ft 425 kts 228°
2026-05-05 19:28 41.09983 145.82787 36149 ft 426 kts 227°
2026-05-05 19:28 41.05642 145.77405 36135 ft 424 kts 227°
2026-05-05 19:29 41.01300 145.72034 36138 ft 424 kts 227°
2026-05-05 19:29 40.96953 145.66666 36141 ft 424 kts 227°
2026-05-05 19:30 40.92596 145.61296 36138 ft 426 kts 227°
2026-05-05 19:30 40.88240 145.55937 36152 ft 426 kts 228°
2026-05-05 19:31 40.83870 145.50572 36126 ft 423 kts 227°
2026-05-05 19:31 40.79518 145.45238 36139 ft 423 kts 227°
2026-05-05 19:32 40.75176 145.39926 36187 ft 423 kts 227°
2026-05-05 19:32 40.70841 145.34634 36124 ft 421 kts 227°
2026-05-05 19:33 40.66490 145.29329 36151 ft 424 kts 227°
2026-05-05 19:33 40.62127 145.24023 36155 ft 423 kts 227°
2026-05-05 19:34 40.57797 145.18767 36142 ft 421 kts 227°
2026-05-05 19:35 40.51292 145.10886 36148 ft 422 kts 227°
2026-05-05 19:35 40.46927 145.05609 36152 ft 421 kts 227°
2026-05-05 19:36 40.42612 145.00403 36171 ft 423 kts 227°
2026-05-05 19:36 40.38253 144.95155 36137 ft 421 kts 227°
2026-05-05 19:37 40.33887 144.89905 36175 ft 421 kts 227°
2026-05-05 19:37 40.29549 144.84700 36160 ft 421 kts 227°
2026-05-05 19:38 40.25215 144.79509 36194 ft 419 kts 228°
2026-05-05 19:38 40.20868 144.74310 36162 ft 418 kts 227°
2026-05-05 19:39 40.16568 144.69179 36178 ft 419 kts 227°
2026-05-05 19:39 40.12228 144.64006 36149 ft 421 kts 227°
2026-05-05 19:40 40.07871 144.58827 36171 ft 418 kts 227°
2026-05-05 19:40 40.03550 144.53697 36173 ft 418 kts 228°
2026-05-05 19:41 39.99235 144.48584 36165 ft 417 kts 228°
2026-05-05 19:41 39.94899 144.43455 36164 ft 415 kts 228°
2026-05-05 19:42 39.90618 144.38400 36182 ft 415 kts 227°
2026-05-05 19:42 39.86304 144.33316 36179 ft 415 kts 227°
2026-05-05 19:43 39.82000 144.28252 36204 ft 415 kts 227°
2026-05-05 19:43 39.77696 144.23196 36193 ft 412 kts 227°
2026-05-05 19:44 39.73405 144.18166 36190 ft 412 kts 227°
2026-05-05 19:44 39.69109 144.13138 36192 ft 412 kts 227°
2026-05-05 19:45 39.64819 144.08125 36196 ft 412 kts 227°
2026-05-05 19:45 39.60537 144.03133 36186 ft 412 kts 227°
2026-05-05 19:46 39.56216 143.98102 36190 ft 411 kts 227°
2026-05-05 19:46 39.51929 143.93118 36185 ft 412 kts 227°
2026-05-05 19:47 39.47654 143.88158 36198 ft 409 kts 227°
2026-05-05 19:47 39.45523 143.85689 36425 ft 408 kts 227°
2026-05-05 19:47 39.43391 143.83221 36216 ft 406 kts 228°
2026-05-05 19:48 39.39151 143.78317 36190 ft 409 kts 227°
2026-05-05 19:48 39.34902 143.73413 36194 ft 407 kts 227°
2026-05-05 19:49 39.30662 143.68527 36183 ft 408 kts 228°
2026-05-05 19:49 39.26398 143.63623 36198 ft 404 kts 228°
2026-05-05 19:50 39.22160 143.58756 36190 ft 405 kts 228°
2026-05-05 19:50 39.17923 143.53897 36180 ft 404 kts 228°
2026-05-05 19:51 39.13691 143.49052 36184 ft 404 kts 228°
2026-05-05 19:51 39.09473 143.44234 36191 ft 402 kts 228°
2026-05-05 19:52 39.05257 143.39424 36196 ft 402 kts 228°
2026-05-05 19:52 39.01033 143.34615 36191 ft 401 kts 227°
2026-05-05 19:53 38.96811 143.29811 36204 ft 403 kts 227°
2026-05-05 19:53 38.92576 143.25064 36202 ft 405 kts 224°
2026-05-05 19:54 38.87401 143.21683 36209 ft 421 kts 207°
2026-05-05 19:54 38.81767 143.19438 36210 ft 423 kts 206°
2026-05-05 19:55 38.76069 143.17226 36210 ft 423 kts 206°
2026-05-05 19:55 38.70402 143.15041 36219 ft 421 kts 206°
2026-05-05 19:56 38.64760 143.12874 36222 ft 419 kts 206°
2026-05-05 19:56 38.59148 143.10725 36221 ft 418 kts 206°
2026-05-05 19:57 38.53511 143.08569 36226 ft 418 kts 207°
2026-05-05 19:57 38.47893 143.06430 36231 ft 417 kts 207°
2026-05-05 19:58 38.42258 143.04283 36229 ft 419 kts 207°
2026-05-05 19:58 38.36660 143.02158 36230 ft 418 kts 207°
2026-05-05 19:59 38.31093 143.00049 36234 ft 414 kts 207°
2026-05-05 19:59 38.25517 142.97937 36228 ft 414 kts 207°
2026-05-05 20:00 38.19962 142.95839 36232 ft 410 kts 207°
2026-05-05 20:00 38.14430 142.93750 36235 ft 411 kts 207°
2026-05-05 20:01 38.08919 142.91672 36242 ft 414 kts 208°
2026-05-05 20:01 38.03352 142.89580 36246 ft 411 kts 207°
2026-05-05 20:02 37.97827 142.87505 36246 ft 409 kts 208°
2026-05-05 20:02 37.92339 142.85448 36244 ft 409 kts 208°
2026-05-05 20:03 37.86849 142.83391 36251 ft 409 kts 208°
2026-05-05 20:03 37.81314 142.81322 36249 ft 408 kts 208°
2026-05-05 20:04 37.75857 142.79286 36252 ft 409 kts 208°
2026-05-05 20:04 37.70348 142.77232 36253 ft 409 kts 208°
2026-05-05 20:05 37.64829 142.75179 36249 ft 408 kts 208°
2026-05-05 20:05 37.59350 142.73143 36251 ft 408 kts 208°
2026-05-05 20:06 37.53862 142.71111 36248 ft 406 kts 208°
2026-05-05 20:06 37.48376 142.69093 36246 ft 410 kts 208°
2026-05-05 20:07 37.42904 142.67087 36246 ft 407 kts 208°
2026-05-05 20:07 37.37407 142.65071 36251 ft 409 kts 208°
2026-05-05 20:08 37.31916 142.63063 36249 ft 409 kts 208°
2026-05-05 20:08 37.26424 142.61058 36246 ft 408 kts 208°
2026-05-05 20:09 37.20902 142.59042 36250 ft 410 kts 209°
2026-05-05 20:09 37.15429 142.57053 36247 ft 405 kts 208°
2026-05-05 20:10 37.09962 142.55064 36252 ft 407 kts 209°
2026-05-05 20:10 37.04506 142.53087 36250 ft 402 kts 209°
2026-05-05 20:11 36.99052 142.51105 36250 ft 407 kts 208°
2026-05-05 20:11 36.93622 142.49142 36253 ft 405 kts 209°
2026-05-05 20:12 36.88153 142.47168 36258 ft 405 kts 208°
2026-05-05 20:12 36.82713 142.45221 36256 ft 405 kts 209°
2026-05-05 20:13 36.77237 142.43259 36258 ft 407 kts 209°
2026-05-05 20:13 36.71766 142.41307 36254 ft 402 kts 208°
2026-05-05 20:14 36.66326 142.39363 36253 ft 405 kts 208°
2026-05-05 20:14 36.60878 142.37422 36254 ft 403 kts 208°
2026-05-05 20:15 36.55427 142.35483 36253 ft 402 kts 208°
2026-05-05 20:15 36.50043 142.33569 36278 ft 405 kts 208°
2026-05-05 20:16 36.44526 142.31609 36276 ft 407 kts 208°
2026-05-05 20:16 36.39095 142.29689 36277 ft 403 kts 209°
2026-05-05 20:17 36.33627 142.27754 36270 ft 401 kts 209°
2026-05-05 20:17 36.28342 142.25536 36269 ft 388 kts 218°
2026-05-05 20:18 36.23643 142.22360 36273 ft 384 kts 220°
2026-05-05 20:18 36.18960 142.19144 36280 ft 384 kts 220°
2026-05-05 20:19 36.14281 142.15935 36278 ft 380 kts 220°
2026-05-05 20:19 36.09690 142.12607 36269 ft 372 kts 227°
2026-05-05 20:20 36.06226 142.08060 36265 ft 352 kts 243°
2026-05-05 20:20 36.04004 142.02652 36276 ft 351 kts 248°
2026-05-05 20:21 36.01955 141.97201 36272 ft 347 kts 248°
2026-05-05 20:21 35.99950 141.91719 36269 ft 347 kts 248°
2026-05-05 20:22 35.97948 141.86203 36265 ft 349 kts 248°
2026-05-05 20:22 35.95957 141.80710 36271 ft 349 kts 249°
2026-05-05 20:23 35.94550 141.74991 36266 ft 350 kts 264°
2026-05-05 20:23 35.94481 141.68927 36261 ft 352 kts 267°
2026-05-05 20:24 35.94497 141.62903 36257 ft 350 kts 267°
2026-05-05 20:24 35.94521 141.56876 36263 ft 353 kts 267°
2026-05-05 20:25 35.94546 141.50830 36257 ft 350 kts 266°
2026-05-05 20:25 35.94570 141.44804 36143 ft 344 kts 266°
2026-05-05 20:25 35.94582 141.41850 35556 ft 340 kts 267°
2026-05-05 20:26 35.94591 141.38927 34780 ft 340 kts 267°
2026-05-05 20:26 35.94598 141.35968 34002 ft 352 kts 267°
2026-05-05 20:26 35.94604 141.32867 33245 ft 367 kts 267°
2026-05-05 20:26 35.94613 141.29688 32492 ft 370 kts 266°
2026-05-05 20:27 35.94621 141.26453 31663 ft 376 kts 267°
2026-05-05 20:27 35.94628 141.23204 30889 ft 379 kts 267°
2026-05-05 20:27 35.94635 141.19959 30405 ft 374 kts 266°
2026-05-05 20:27 35.94641 141.16768 29925 ft 374 kts 266°
2026-05-05 20:28 35.94644 141.13538 29381 ft 375 kts 266°
2026-05-05 20:28 35.94648 141.10271 28829 ft 373 kts 266°
2026-05-05 20:28 35.94651 141.07060 28292 ft 373 kts 266°
2026-05-05 20:28 35.94652 141.03876 27740 ft 373 kts 266°
2026-05-05 20:29 35.94654 141.00623 27163 ft 373 kts 267°
2026-05-05 20:29 35.94922 140.97415 26606 ft 379 kts 277°
2026-05-05 20:29 35.95724 140.94272 26046 ft 389 kts 287°
2026-05-05 20:29 35.97022 140.91287 25429 ft 397 kts 294°
2026-05-05 20:30 35.98502 140.88348 24823 ft 396 kts 295°
2026-05-05 20:30 35.99962 140.85480 24223 ft 394 kts 296°
2026-05-05 20:30 36.01427 140.82602 23624 ft 394 kts 296°
2026-05-05 20:30 36.02900 140.79709 23010 ft 395 kts 296°
2026-05-05 20:31 36.04387 140.76787 22416 ft 396 kts 297°
2026-05-05 20:31 36.05855 140.73901 21802 ft 396 kts 297°
2026-05-05 20:31 36.07342 140.70976 21143 ft 397 kts 297°
2026-05-05 20:31 36.08817 140.68074 20506 ft 397 kts 298°
2026-05-05 20:32 36.10285 140.65184 19889 ft 397 kts 298°
2026-05-05 20:32 36.11755 140.62286 19259 ft 397 kts 298°
2026-05-05 20:32 36.13244 140.59351 18626 ft 397 kts 299°
2026-05-05 20:32 36.14717 140.56442 17968 ft 399 kts 299°
2026-05-05 20:33 36.16197 140.53520 17275 ft 399 kts 299°
2026-05-05 20:33 36.17674 140.50600 16645 ft 399 kts 300°
2026-05-05 20:33 36.19168 140.47647 15992 ft 398 kts 300°
2026-05-05 20:33 36.20858 140.44920 15350 ft 399 kts 311°
2026-05-05 20:34 36.22944 140.42636 14846 ft 396 kts 322°
2026-05-05 20:34 36.25209 140.40735 14680 ft 386 kts 324°
2026-05-05 20:34 36.27467 140.38896 14494 ft 385 kts 325°
2026-05-05 20:34 36.29744 140.37053 14248 ft 383 kts 325°
2026-05-05 20:35 36.31992 140.35239 14014 ft 381 kts 325°
2026-05-05 20:35 36.34107 140.33243 13711 ft 377 kts 314°
2026-05-05 20:35 36.35835 140.30812 13476 ft 372 kts 302°
2026-05-05 20:35 36.37116 140.28015 13268 ft 368 kts 291°
2026-05-05 20:36 36.37893 140.24991 13006 ft 364 kts 279°
2026-05-05 20:36 36.38151 140.21872 12755 ft 360 kts 267°
2026-05-05 20:36 36.37974 140.18768 12515 ft 358 kts 261°
2026-05-05 20:36 36.37649 140.15694 12269 ft 356 kts 260°
2026-05-05 20:37 36.37270 140.12646 12030 ft 355 kts 258°
2026-05-05 20:37 36.36830 140.09615 11800 ft 352 kts 257°
2026-05-05 20:37 36.36341 140.06619 11567 ft 353 kts 256°
2026-05-05 20:37 36.35810 140.03635 11326 ft 351 kts 255°
2026-05-05 20:38 36.35248 140.00621 11100 ft 349 kts 254°
2026-05-05 20:38 36.34451 139.97803 10883 ft 338 kts 241°
2026-05-05 20:38 36.33181 139.95454 10800 ft 320 kts 227°
2026-05-05 20:38 36.31571 139.93640 10782 ft 302 kts 214°
2026-05-05 20:39 36.29763 139.92392 10770 ft 286 kts 202°
2026-05-05 20:39 36.27896 139.91698 10759 ft 272 kts 191°
2026-05-05 20:39 36.26004 139.91498 10748 ft 271 kts 179°
2026-05-05 20:39 36.24096 139.91777 10739 ft 272 kts 168°
2026-05-05 20:40 36.22324 139.92502 10730 ft 270 kts 157°
2026-05-05 20:40 36.20651 139.93687 10721 ft 273 kts 146°
2026-05-05 20:40 36.19213 139.95261 10719 ft 275 kts 135°
2026-05-05 20:40 36.18055 139.97171 10712 ft 278 kts 123°
2026-05-05 20:41 36.17229 139.99359 10705 ft 280 kts 111°
2026-05-05 20:41 36.16782 140.01724 10702 ft 284 kts 99°
2026-05-05 20:41 36.16734 140.04211 10701 ft 285 kts 89°
2026-05-05 20:41 36.16914 140.06653 10707 ft 287 kts 86°
2026-05-05 20:42 36.17183 140.09114 10701 ft 287 kts 84°
2026-05-05 20:42 36.17517 140.11592 10695 ft 288 kts 83°
2026-05-05 20:42 36.17890 140.14032 10698 ft 288 kts 81°
2026-05-05 20:42 36.18295 140.16487 10706 ft 289 kts 80°
2026-05-05 20:43 36.18751 140.18932 10720 ft 290 kts 75°
2026-05-05 20:43 36.19543 140.21251 10724 ft 292 kts 62°
2026-05-05 20:43 36.20726 140.23318 10715 ft 293 kts 49°
2026-05-05 20:43 36.22278 140.25058 10712 ft 295 kts 36°
2026-05-05 20:44 36.24078 140.26323 10703 ft 296 kts 23°
2026-05-05 20:44 36.26056 140.27072 10690 ft 296 kts
2026-05-05 20:44 36.28129 140.27272 10658 ft 295 kts 356°
2026-05-05 20:44 36.30166 140.26909 10656 ft 293 kts 343°
2026-05-05 20:45 36.33798 140.24623 10633 ft 288 kts 317°
2026-05-05 20:45 36.35211 140.22841 10617 ft 287 kts 305°
2026-05-05 20:45 36.36274 140.20756 10608 ft 283 kts 293°
2026-05-05 20:46 36.36959 140.18460 10603 ft 281 kts 281°
2026-05-05 20:46 36.37241 140.16055 10592 ft 278 kts 269°
2026-05-05 20:46 36.37139 140.13669 10588 ft 275 kts 260°
2026-05-05 20:46 36.36877 140.11304 10589 ft 274 kts 258°
2026-05-05 20:47 36.36562 140.08960 10591 ft 274 kts 257°
2026-05-05 20:47 36.36205 140.06612 10590 ft 274 kts 256°
2026-05-05 20:47 36.35823 140.04282 10578 ft 274 kts 255°
2026-05-05 20:47 36.35416 140.01927 10577 ft 275 kts 255°
2026-05-05 20:48 36.34990 139.99625 10573 ft 274 kts 251°
2026-05-05 20:48 36.34069 139.97571 10550 ft 271 kts 225°
2026-05-05 20:48 36.32499 139.96257 10529 ft 270 kts 199°
2026-05-05 20:48 36.30666 139.95962 10507 ft 268 kts 174°
2026-05-05 20:49 36.28874 139.96739 10482 ft 271 kts 148°
2026-05-05 20:49 36.27567 139.98418 10454 ft 277 kts 122°
2026-05-05 20:49 36.26998 140.00714 10434 ft 282 kts 96°
2026-05-05 20:49 36.27138 140.03210 10429 ft 286 kts 83°
2026-05-05 20:50 36.27535 140.05649 10430 ft 289 kts 79°
2026-05-05 20:50 36.27998 140.08077 10436 ft 288 kts 79°
2026-05-05 20:50 36.28474 140.10512 10429 ft 288 kts 79°
2026-05-05 20:50 36.29050 140.12891 10417 ft 289 kts 64°
2026-05-05 20:51 36.30384 140.14821 10399 ft 295 kts 34°
2026-05-05 20:51 36.32290 140.15706 10373 ft 295 kts
2026-05-05 20:51 36.34307 140.15334 10342 ft 291 kts 334°
2026-05-05 20:51 36.35901 140.13827 10317 ft 285 kts 305°
2026-05-05 20:52 36.36725 140.11597 10301 ft 279 kts 277°
2026-05-05 20:52 36.36761 140.09210 10301 ft 276 kts 261°
2026-05-05 20:52 36.36455 140.06859 10309 ft 274 kts 256°
2026-05-05 20:52 36.36041 140.04536 10299 ft 274 kts 254°
2026-05-05 20:53 36.35598 140.02225 10298 ft 274 kts 253°
2026-05-05 20:53 36.35115 139.99898 10291 ft 272 kts 247°
2026-05-05 20:53 36.34100 139.97946 10263 ft 266 kts 221°
2026-05-05 20:53 36.32500 139.96768 10248 ft 265 kts 196°
2026-05-05 20:54 36.30656 139.96596 10230 ft 268 kts 171°
2026-05-05 20:54 36.28914 139.97473 10207 ft 272 kts 145°
2026-05-05 20:54 36.27660 139.99260 10185 ft 278 kts 119°
2026-05-05 20:54 36.27183 140.01592 10168 ft 283 kts 95°
2026-05-05 20:55 36.27322 140.04056 10163 ft 286 kts 84°
2026-05-05 20:55 36.27705 140.06485 10165 ft 286 kts 79°
2026-05-05 20:55 36.28159 140.08890 10167 ft 286 kts 79°
2026-05-05 20:55 36.28628 140.11299 10162 ft 285 kts 78°
2026-05-05 20:56 36.29378 140.13591 10152 ft 290 kts 56°
2026-05-05 20:56 36.30914 140.15228 10129 ft 292 kts 25°
2026-05-05 20:56 36.32909 140.15747 10092 ft 294 kts 355°
2026-05-05 20:56 36.34842 140.15015 10055 ft 290 kts 324°
2026-05-05 20:57 36.36233 140.13257 10027 ft 282 kts 296°
2026-05-05 20:57 36.36795 140.10925 10010 ft 276 kts 270°
2026-05-05 20:57 36.36693 140.08551 10016 ft 273 kts 259°
2026-05-05 20:57 36.36344 140.06220 10013 ft 274 kts 255°
2026-05-05 20:58 36.35921 140.03909 9998 ft 273 kts 254°
2026-05-05 20:58 36.35475 140.01593 10001 ft 272 kts 254°
2026-05-05 20:58 36.34927 139.99341 9985 ft 270 kts 240°
2026-05-05 20:58 36.33731 139.97549 9968 ft 268 kts 215°
2026-05-05 20:59 36.32044 139.96623 9946 ft 265 kts 189°
2026-05-05 20:59 36.30197 139.96719 9925 ft 266 kts 165°
2026-05-05 20:59 36.28566 139.97827 9905 ft 270 kts 139°
2026-05-05 20:59 36.27490 139.99759 9882 ft 277 kts 112°
2026-05-05 21:00 36.27190 140.02135 9868 ft 281 kts 91°
2026-05-05 21:00 36.27403 140.04599 9862 ft 283 kts 83°
2026-05-05 21:00 36.27804 140.07004 9866 ft 284 kts 79°
2026-05-05 21:00 36.28262 140.09418 9866 ft 285 kts 79°
2026-05-05 21:01 36.28733 140.11816 9853 ft 285 kts 77°
2026-05-05 21:01 36.29649 140.14020 9847 ft 290 kts 49°
2026-05-05 21:01 36.31327 140.15448 9821 ft 293 kts 19°
2026-05-05 21:01 36.33343 140.15698 9783 ft 290 kts 348°
2026-05-05 21:02 36.35210 140.14710 9750 ft 286 kts 319°
2026-05-05 21:02 36.36432 140.12804 9727 ft 281 kts 290°
2026-05-05 21:02 36.36815 140.10466 9717 ft 274 kts 267°
2026-05-05 21:02 36.36639 140.08116 9726 ft 272 kts 258°
2026-05-05 21:03 36.36270 140.05806 9717 ft 272 kts 255°
2026-05-05 21:03 36.35844 140.03513 9706 ft 270 kts 254°
2026-05-05 21:03 36.35404 140.01225 9706 ft 270 kts 253°
2026-05-05 21:03 36.34783 139.99002 9685 ft 266 kts 236°
2026-05-05 21:04 36.33511 139.97343 9669 ft 263 kts 211°
2026-05-05 21:04 36.31791 139.96556 9650 ft 264 kts 186°
2026-05-05 21:04 36.29962 139.96785 9630 ft 264 kts 162°
2026-05-05 21:04 36.28379 139.98009 9612 ft 269 kts 136°
2026-05-05 21:05 36.27390 140.00015 9586 ft 277 kts 110°
2026-05-05 21:05 36.27179 140.02408 9575 ft 282 kts 90°
2026-05-05 21:05 36.27433 140.04848 9569 ft 285 kts 82°
2026-05-05 21:05 36.27850 140.07263 9573 ft 284 kts 80°
2026-05-05 21:06 36.28310 140.09668 9574 ft 286 kts 79°
2026-05-05 21:06 36.28797 140.12096 9561 ft 286 kts 75°
2026-05-05 21:06 36.29805 140.14239 9555 ft 292 kts 46°
2026-05-05 21:06 36.31533 140.15555 9530 ft 291 kts 15°
2026-05-05 21:07 36.33559 140.15688 9494 ft 291 kts 345°
2026-05-05 21:07 36.35393 140.14609 9468 ft 285 kts 317°
2026-05-05 21:07 36.36637 140.12729 9452 ft 280 kts 293°
2026-05-05 21:07 36.37144 140.10420 9439 ft 274 kts 269°
2026-05-05 21:08 36.36897 140.08095 9436 ft 269 kts 252°
2026-05-05 21:08 36.36382 140.05826 9432 ft 271 kts 252°
2026-05-05 21:08 36.35893 140.03552 9421 ft 271 kts 253°
2026-05-05 21:08 36.35428 140.01268 9421 ft 271 kts 253°
2026-05-05 21:09 36.34948 139.98984 9406 ft 270 kts 247°
2026-05-05 21:09 36.34110 139.96890 9409 ft 268 kts 235°
2026-05-05 21:09 36.32954 139.95096 9405 ft 266 kts 223°
2026-05-05 21:09 36.31515 139.93631 9400 ft 263 kts 212°
2026-05-05 21:10 36.29863 139.92575 9397 ft 265 kts 200°
2026-05-05 21:10 36.28068 139.91969 9396 ft 265 kts 189°
2026-05-05 21:10 36.26220 139.91844 9390 ft 265 kts 177°
2026-05-05 21:10 36.24399 139.92194 9381 ft 263 kts 166°
2026-05-05 21:11 36.22623 139.92944 9373 ft 265 kts 156°
2026-05-05 21:11 36.20959 139.93985 9368 ft 265 kts 162°
2026-05-05 21:11 36.19138 139.94321 9355 ft 262 kts 182°
2026-05-05 21:11 36.17312 139.94008 9349 ft 263 kts 193°
2026-05-05 21:12 36.15527 139.93448 9352 ft 262 kts 194°
2026-05-05 21:12 36.13762 139.92877 9351 ft 261 kts 194°
2026-05-05 21:12 36.11982 139.92303 9350 ft 263 kts 194°
2026-05-05 21:12 36.10196 139.91728 9278 ft 262 kts 194°
2026-05-05 21:13 36.08421 139.91142 9056 ft 263 kts 194°
2026-05-05 21:13 36.06633 139.90547 8766 ft 263 kts 193°
2026-05-05 21:13 36.04818 139.90393 8450 ft 260 kts 172°
2026-05-05 21:13 36.03065 139.90950 8165 ft 257 kts 163°
2026-05-05 21:14 36.01358 139.91647 7881 ft 255 kts 162°
2026-05-05 21:14 35.99656 139.92380 7592 ft 253 kts 162°
2026-05-05 21:14 35.97992 139.93108 7308 ft 251 kts 162°
2026-05-05 21:14 35.96339 139.93832 7026 ft 249 kts 161°
2026-05-05 21:15 35.94702 139.94551 6747 ft 247 kts 162°
2026-05-05 21:15 35.93077 139.95264 6469 ft 245 kts 161°
2026-05-05 21:15 35.91479 139.95966 6199 ft 245 kts 162°
2026-05-05 21:15 35.89855 139.96678 5920 ft 244 kts 162°
2026-05-05 21:16 35.88252 139.97382 5652 ft 243 kts 162°
2026-05-05 21:16 35.86625 139.98012 5371 ft 241 kts 172°
2026-05-05 21:16 35.84946 139.98033 5187 ft 233 kts 184°
2026-05-05 21:16 35.83362 139.97885 5141 ft 222 kts 185°
2026-05-05 21:17 35.81855 139.97722 5097 ft 211 kts 186°
2026-05-05 21:17 35.80410 139.97551 5013 ft 203 kts 189°
2026-05-05 21:17 35.79108 139.96898 4981 ft 198 kts 210°
2026-05-05 21:17 35.77981 139.95998 4975 ft 184 kts 212°
2026-05-05 21:18 35.76954 139.95094 4817 ft 179 kts 214°
2026-05-05 21:18 35.75941 139.94189 4589 ft 177 kts 214°
2026-05-05 21:18 35.74931 139.93309 4360 ft 175 kts 213°
2026-05-05 21:18 35.73933 139.92447 4133 ft 174 kts 213°
2026-05-05 21:19 35.72940 139.91592 3919 ft 174 kts 212°
2026-05-05 21:19 35.71924 139.90720 3682 ft 176 kts 212°
2026-05-05 21:19 35.70911 139.89850 3449 ft 178 kts 212°
2026-05-05 21:19 35.69895 139.88977 3212 ft 177 kts 212°
2026-05-05 21:20 35.68877 139.88101 2971 ft 173 kts 212°
2026-05-05 21:20 35.67886 139.87250 2742 ft 174 kts 212°
2026-05-05 21:20 35.66888 139.86395 2505 ft 175 kts 212°
2026-05-05 21:20 35.65873 139.85522 2260 ft 174 kts 212°
2026-05-05 21:21 35.64917 139.84700 2026 ft 159 kts 211°
2026-05-05 21:21 35.64040 139.83948 1823 ft 147 kts 211°
2026-05-05 21:21 35.63238 139.83261 1631 ft 137 kts 210°
2026-05-05 21:21 35.62454 139.82591 1446 ft 137 kts 211°
2026-05-05 21:22 35.61654 139.81905 1251 ft 137 kts 211°
2026-05-05 21:22 35.60855 139.81229 1074 ft 139 kts 212°
2026-05-05 21:22 35.60062 139.80537 902 ft 141 kts 212°
2026-05-05 21:22 35.59239 139.79839 710 ft 143 kts 212°
2026-05-05 21:23 35.58424 139.79137 500 ft 142 kts 213°
2026-05-05 21:23 35.57604 139.78436 286 ft 140 kts 213°
2026-05-05 21:23 35.56811 139.77759 85 ft 137 kts 213°
2026-05-05 21:23 35.56076 139.77139 35 ft 110 kts 216°
2026-05-05 21:24 35.55570 139.76703 35 ft 65 kts 215°
2026-05-05 21:24 35.55376 139.76538 35 ft 19 kts 212°
2026-05-05 21:24 35.55255 139.76482 35 ft 18 kts 195°
2026-05-05 21:24 35.55133 139.76453 35 ft 16 kts 179°
2026-05-05 21:25 35.55078 139.76533 35 ft 13 kts 77°
2026-05-05 21:25 35.55136 139.76677 35 ft 24 kts 60°
2026-05-05 21:25 35.55222 139.76860 35 ft 24 kts 60°
2026-05-05 21:25 35.55265 139.77017 35 ft 17 kts 114°
2026-05-05 21:26 35.55173 139.77110 35 ft 21 kts 149°
2026-05-05 21:26 35.55047 139.77199 35 ft 20 kts 150°
2026-05-05 21:26 35.54927 139.77284 35 ft 18 kts 150°
2026-05-05 21:26 35.54821 139.77274 35 ft 17 kts 234°
2026-05-05 21:27 35.54760 139.77153 35 ft 16 kts 239°
2026-05-05 21:27 35.54745 139.77051 35 ft 4 kts 275°
2026-05-05 21:27 35.54736 139.77005 35 ft 5 kts 246°
2026-05-05 21:27 35.54716 139.76958 35 ft 6 kts 242°
2026-05-05 21:28 35.54708 139.76939 35 ft 0 kts 241°